GFSNE_925_rhum_000.txt.gz
RH
94 92 90 86 84 81 78 76 75 80 69 62 61 68 75 71 70 64 63 61 55 52 56 59 57 66 71 82 80 77 72 69 68 65 66 68 74 69
93 93 93 90 88 87 85 82 80 78 84 64 64 70 74 71 68 67 63 56 53 50 51 56 58 63 76 76 78 76 73 71 68 67 70 76 69 72
91 93 92 91 90 91 91 91 90 88 89 79 74 78 80 74 71 72 56 57 60 56 56 54 63 78 77 80 78 76 73 71 69 66 64 63 66 70
88 90 92 92 93 91 93 94 93 92 90 87 82 84 75 78 67 59 61 61 62 60 55 36 81 74 80 82 79 76 76 75 73 70 64 62 63 65
86 89 88 89 90 92 94 94 94 92 92 86 84 82 78 72 69 68 67 69 67 59 43 57 66 76 77 78 78 79 79 77 76 69 69 66 67 68
84 86 87 88 88 88 95 95 96 95 94 95 95 83 77 75 73 66 69 71 67 55 61 54 58 65 75 77 76 77 78 82 77 71 68 71 74 73
84 88 89 89 88 87 94 97 97 94 94 96 93 83 77 78 73 68 66 63 56 63 66 57 56 56 57 62 66 70 82 84 77 72 71 70 74 72
88 87 90 93 94 92 93 94 97 98 96 88 89 82 74 67 67 69 67 56 40 75 68 54 55 58 57 58 63 83 89 85 76 75 74 72 72 70
88 90 90 96 100 100 99 100 99 97 92 87 90 81 68 65 70 72 65 51 45 52 65 56 55 63 56 56 65 78 92 84 76 78 76 74 73 72
93 91 95 92 100 100 100 100 100 100 98 91 84 76 62 63 66 61 56 52 64 60 74 69 49 50 55 56 60 75 84 78 79 79 76 76 77 79
97 98 98 97 96 100 100 100 100 97 88 75 67 56 49 48 43 40 74 70 50 45 72 71 54 54 55 51 53 66 72 70 73 74 79 78 81 83
100 99 98 100 98 100 100 99 94 90 76 71 70 70 52 38 42 62 68 69 63 43 66 71 55 62 58 48 52 50 49 49 58 66 70 81 86 84
94 98 100 99 100 100 100 98 95 89 89 79 80 76 78 82 79 78 60 79 75 67 66 78 83 75 68 60 52 49 47 46 46 53 59 63 69 82
97 95 98 99 100 100 100 98 99 98 90 86 81 77 76 79 91 91 61 78 92 87 82 94 94 90 86 76 53 41 46 48 49 49 53 56 62 68
100 100 100 100 100 100 100 100 100 94 81 70 67 71 78 88 95 74 72 71 71 90 96 97 99 93 96 89 72 63 57 49 49 51 49 54 58 62
98 99 100 100 100 100 100 100 92 84 72 63 68 75 88 90 86 93 90 86 79 76 96 75 98 100 98 84 75 66 59 54 48 50 51 55 57 57
100 100 100 100 100 100 100 94 91 81 67 64 68 74 68 79 89 95 83 79 73 68 73 83 95 98 95 97 85 70 61 51 50 53 56 56 58 58
100 99 99 98 97 98 96 94 85 75 72 71 70 64 70 81 86 86 81 78 72 71 75 82 87 82 69 62 71 70 57 50 53 54 58 59 58 58
100 99 98 98 98 96 95 90 80 76 76 75 73 78 87 88 86 78 79 76 73 75 81 90 89 83 74 66 46 69 70 58 56 60 57 59 63 64
100 100 99 98 99 97 96 87 82 85 82 78 84 90 90 86 78 76 75 75 74 82 83 85 88 86 82 75 77 59 55 64 65 66 70 70 72 78
100 100 98 97 99 99 92 90 93 94 91 85 88 89 88 82 76 75 77 81 84 83 74 71 84 61 81 83 88 60 58 64 74 79 82 87 82 74
100 100 100 99 99 98 98 98 95 94 90 88 88 85 82 80 76 77 77 79 79 79 79 82 82 92 90 78 70 67 70 71 80 79 84 89 93 86
100 99 100 100 99 98 98 98 98 92 90 93 85 85 84 79 79 79 80 80 79 73 74 65 70 71 78 78 80 77 76 79 79 81 78 83 97 98

GFSNE_925_rhum_003.txt.gz
RH
88 92 90 85 84 84 81 80 80 87 74 64 65 63 62 65 66 66 67 63 61 63 58 57 58 57 56 72 82 78 76 71 71 70 68 65 65 77
82 85 88 88 84 85 86 84 82 82 86 66 63 63 66 72 70 68 64 59 62 60 62 56 53 53 52 62 75 78 76 75 73 70 67 64 66 69
76 80 84 87 87 87 87 89 86 86 89 78 72 66 66 72 71 67 62 64 62 63 62 56 54 51 46 56 78 80 79 75 73 71 69 66 63 60
75 78 81 86 88 86 87 90 90 89 88 86 81 83 80 77 74 70 69 66 62 63 62 56 52 45 34 75 82 81 78 77 78 75 71 68 64 63
74 77 78 82 85 87 89 90 92 92 92 91 86 88 83 80 74 70 67 64 63 62 60 57 45 39 69 77 77 79 80 81 79 76 72 70 66 68
75 76 74 78 81 83 88 90 90 96 96 97 95 88 81 82 76 74 73 68 70 66 57 53 58 61 65 71 77 80 81 81 82 78 74 70 69 70
79 79 80 77 78 83 84 86 91 96 98 97 96 93 89 88 84 79 74 71 74 69 58 60 58 60 59 62 72 70 75 79 84 79 75 71 71 68
80 80 82 81 80 82 86 85 88 96 98 97 97 96 94 90 85 76 74 68 70 51 60 61 52 54 58 57 60 63 75 86 86 80 76 75 74 73
80 84 82 83 86 85 92 91 90 95 96 97 96 93 92 89 82 76 72 62 52 66 58 58 50 55 60 59 58 64 72 83 87 79 77 76 74 75
76 81 85 83 82 90 96 98 100 100 100 100 98 94 88 81 79 75 68 54 52 55 54 80 53 55 53 54 59 61 72 85 80 78 80 76 76 78
79 81 81 89 86 87 99 100 100 100 100 100 100 97 85 74 72 63 63 67 62 49 67 72 59 54 57 57 53 58 74 74 69 67 72 75 79 81
89 84 81 87 94 92 94 100 100 100 100 100 94 85 79 82 69 48 51 74 65 53 62 71 57 64 73 48 50 54 52 51 51 56 61 65 72 82
89 89 93 94 92 92 89 100 98 100 100 99 98 93 87 80 71 60 46 44 72 71 80 70 85 82 71 66 60 53 52 50 47 49 51 57 66 67
90 87 91 96 98 98 100 100 100 100 100 100 96 95 91 89 73 56 57 63 74 76 78 76 82 89 87 84 74 48 54 54 53 50 48 52 57 58
97 95 95 97 98 100 100 100 100 100 100 97 94 92 92 84 89 84 59 80 81 77 88 90 88 95 90 87 90 82 72 60 59 54 50 51 52 54
97 98 99 100 100 100 100 100 100 100 98 93 90 94 99 96 98 84 94 97 90 90 73 80 83 92 94 95 97 90 81 72 54 55 52 53 56 58
100 99 99 100 100 100 100 100 99 99 93 90 92 94 98 99 100 93 95 92 76 74 89 92 90 94 95 95 99 93 88 74 60 50 53 56 57 58
98 97 98 100 100 100 100 100 99 96 88 88 85 84 93 97 97 97 94 81 76 73 76 81 88 88 78 65 76 95 85 67 57 54 57 59 62 60
97 98 100 100 100 100 100 99 98 96 93 88 84 94 98 98 93 92 86 80 76 73 79 89 92 89 97 92 57 80 85 70 66 59 61 64 64 67
99 100 99 100 100 100 100 99 98 98 98 95 95 99 98 96 92 83 79 78 76 80 84 88 91 91 94 91 96 67 53 67 65 66 69 75 79 82
98 99 100 100 100 100 100 98 98 98 98 98 99 98 98 95 83 79 78 78 80 83 81 75 77 79 71 86 98 79 60 61 74 81 87 95 90 83
99 100 100 100 100 99 98 98 99 99 98 97 97 98 96 87 79 79 84 86 82 78 78 80 78 84 97 94 88 81 79 80 83 85 88 96 97 96
99 100 100 100 99 98 98 98 99 98 98 98 97 97 91 80 79 79 77 75 79 74 74 72 67 69 75 84 74 77 81 87 85 88 93 97 98 97

GFSNE_925_rhum_006.txt.gz
RH
90 92 92 86 83 83 84 82 80 85 77 67 71 66 62 63 62 60 63 64 65 66 65 63 65 60 61 61 72 79 81 79 73 72 72 71 67 65
84 87 88 88 88 90 88 86 84 84 88 69 69 68 65 66 68 65 64 65 68 67 64 63 63 58 59 56 68 79 78 75 76 74 73 71 68 65
78 82 82 81 83 87 90 86 87 85 91 78 76 74 70 68 74 75 71 72 68 62 64 69 60 59 57 60 74 74 78 78 76 75 75 72 70 66
70 73 73 74 78 84 88 88 88 85 88 89 78 82 85 78 83 84 84 72 65 64 70 72 79 84 80 67 72 77 81 80 78 79 77 74 71 67
68 72 73 75 77 75 83 88 85 88 91 93 88 84 93 92 88 91 90 74 71 67 74 84 81 78 82 60 75 79 78 81 80 81 79 76 71 69
67 70 74 77 79 78 77 82 92 91 91 94 91 93 95 92 89 94 90 84 75 70 71 69 66 70 76 65 73 75 78 82 82 82 80 76 74 70
70 71 72 75 77 79 85 83 84 95 90 94 93 98 98 97 95 94 94 90 88 73 66 63 60 57 48 60 70 76 80 78 81 82 79 76 74 71
76 76 77 80 82 83 82 83 87 88 90 88 95 96 96 93 96 98 95 95 92 74 67 63 60 50 48 50 50 63 66 68 77 82 81 77 74 73
80 83 82 82 83 84 85 83 91 89 96 97 97 96 91 94 98 99 97 90 82 70 68 59 50 51 46 49 63 65 66 70 76 83 82 77 75 75
83 84 86 87 89 86 86 88 92 95 98 99 100 98 98 93 96 95 96 92 80 77 64 70 53 53 52 55 61 62 64 67 74 84 80 78 77 77
78 80 79 84 84 88 99 97 88 97 96 100 100 100 100 99 100 99 97 90 83 72 61 53 58 55 55 54 53 57 61 70 78 78 73 70 72 76
71 73 87 87 88 90 98 99 97 95 98 100 100 100 99 100 100 98 93 88 96 91 70 59 61 58 69 54 50 54 58 64 59 58 58 60 62 65
64 68 76 90 95 95 97 99 99 99 100 100 100 100 100 100 98 97 96 90 88 80 74 58 74 75 72 72 59 48 51 51 50 51 52 54 57 62
71 70 78 89 95 99 100 99 100 100 100 100 100 99 99 97 96 94 88 82 59 44 76 61 73 78 84 91 86 58 52 46 45 51 51 51 55 58
75 78 85 95 97 100 99 100 100 100 100 99 98 97 95 94 95 97 96 86 74 85 89 71 60 71 77 85 91 88 88 66 62 65 54 52 51 51
81 85 95 95 99 100 100 100 100 100 100 99 99 100 99 100 99 93 96 97 96 96 91 72 71 73 92 92 92 98 95 94 62 52 50 58 54 54
84 87 96 96 97 98 100 100 100 100 100 100 100 100 99 98 100 98 98 98 91 99 99 88 86 83 87 89 98 95 96 95 76 66 69 59 57 59
79 91 96 97 97 97 100 99 100 99 98 98 98 98 98 97 97 98 97 93 83 85 88 96 100 93 82 64 75 95 97 94 74 62 59 66 64 63
81 92 97 97 98 98 100 100 99 98 98 98 98 98 98 98 97 97 96 82 80 77 79 87 90 93 100 100 58 78 92 86 86 85 75 67 68 69
83 87 97 98 98 99 100 100 98 98 98 98 98 98 98 97 97 97 89 82 79 82 89 89 88 86 97 94 100 62 39 56 65 73 73 76 79 84
81 85 96 99 99 100 99 99 98 98 98 98 98 98 98 97 97 88 81 79 82 85 95 89 83 94 86 86 94 77 65 66 80 90 96 98 91 85
82 91 98 100 100 100 99 98 98 98 98 98 98 98 98 97 88 83 80 82 84 82 80 79 73 75 86 99 96 89 87 77 80 92 98 99 97 95
88 95 99 100 100 100 98 98 98 98 98 97 98 98 97 90 82 79 76 77 80 74 76 68 67 70 72 81 83 89 88 94 96 95 89 94 98 99

GFSNE_925_rhum_009.txt.gz
RH
80 84 86 88 92 93 90 88 87 94 79 66 63 68 70 71 69 68 68 64 61 62 63 65 71 84 84 83 75 80 86 84 85 81 76 70 73 72
70 78 78 84 89 88 86 85 91 92 94 72 70 68 69 69 69 70 70 70 65 67 68 66 69 81 81 77 67 69 83 84 81 75 72 74 73 71
54 60 70 73 80 82 84 86 96 93 96 82 78 74 75 74 72 71 74 71 69 74 75 76 79 82 81 76 72 72 84 81 77 75 74 76 74 72
68 71 73 73 76 78 83 85 85 90 90 91 80 79 82 83 81 78 80 81 78 80 84 85 86 92 96 88 80 83 83 80 79 77 78 78 77 74
71 71 72 74 76 76 80 84 84 84 87 92 90 85 87 92 95 93 91 88 89 91 96 86 94 99 99 98 89 87 81 82 83 81 80 80 77 74
77 77 77 78 78 79 82 84 86 87 86 85 91 92 88 100 97 95 100 100 99 100 100 100 99 100 100 94 91 82 82 83 82 82 83 80 80 76
80 74 76 81 83 82 87 91 93 91 87 85 86 85 89 99 98 92 97 98 100 100 100 100 100 98 96 89 90 88 80 81 81 83 84 82 78 76
64 75 83 85 86 88 87 88 95 99 94 92 86 89 84 98 98 98 97 99 98 100 99 100 96 100 90 91 88 78 78 82 82 80 83 82 79 77
72 71 76 71 64 75 83 88 92 94 95 98 96 90 91 92 95 98 97 93 93 96 98 96 99 97 86 82 63 68 69 73 72 76 81 82 80 77
67 68 75 59 65 82 91 90 90 91 90 96 94 91 93 98 100 97 92 97 100 99 100 95 99 95 91 80 64 67 69 70 72 75 79 82 79 77
66 70 60 59 66 71 84 90 90 92 95 96 96 97 89 88 100 100 100 98 96 96 96 87 94 93 78 64 50 70 69 68 70 71 80 80 79 77
71 72 69 62 64 72 84 87 92 93 95 95 98 99 99 99 98 100 99 98 98 97 97 95 96 91 87 59 61 57 62 65 68 80 78 70 67 66
73 76 73 69 77 86 89 95 96 97 98 99 99 100 100 100 98 99 100 99 97 99 98 94 97 94 70 74 60 56 57 63 68 60 62 65 62 60
74 77 75 78 85 86 94 96 100 100 99 99 100 100 100 100 100 100 100 100 96 92 99 96 95 86 85 83 70 61 55 51 51 49 45 46 61 64
73 75 80 81 81 95 94 95 99 100 99 98 98 100 99 99 99 99 100 100 98 99 99 95 48 65 54 75 85 78 66 56 52 56 54 52 49 50
75 78 78 72 88 96 98 98 100 100 100 100 100 100 100 99 98 98 98 99 97 98 98 81 56 50 70 70 74 90 83 83 70 67 58 49 49 54
71 80 77 77 85 91 97 98 99 100 100 100 99 99 99 98 98 98 97 97 97 96 99 96 84 75 75 74 93 92 93 95 73 66 71 69 58 54
73 74 76 84 90 95 97 97 98 100 99 99 98 98 98 98 97 98 98 97 96 95 99 100 100 97 78 58 84 98 94 91 75 70 76 84 73 61
75 80 86 90 90 98 98 98 98 100 99 99 98 98 98 98 97 97 97 97 94 89 97 100 97 90 99 87 49 92 89 82 88 93 84 82 76 70
80 88 92 92 96 98 98 98 98 99 98 98 98 98 98 97 97 97 97 93 88 94 97 93 87 85 92 89 93 48 62 70 64 66 69 70 75 83
85 91 93 90 97 98 99 99 99 98 98 98 98 98 97 97 97 98 92 81 86 90 98 97 87 95 94 92 96 80 59 66 75 84 88 96 89 86
91 92 91 95 94 98 99 99 98 98 98 98 98 97 97 97 97 91 84 86 87 83 85 83 81 84 88 94 95 89 84 83 82 92 99 100 95 96
85 89 99 90 93 98 99 99 98 98 98 97 97 97 97 97 88 82 83 82 83 79 76 69 70 72 80 86 87 92 94 95 92 93 87 94 100 100

GFSNE_925_rhum_012.txt.gz
RH
63 67 77 79 81 84 84 93 97 96 86 76 78 70 70 71 67 67 72 71 69 67 66 67 72 65 69 71 82 81 90 89 91 91 90 90 85 77
70 70 73 77 81 84 85 87 89 91 93 74 77 79 74 71 69 72 73 71 71 70 68 69 69 70 68 68 72 84 94 91 92 91 90 84 79 70
65 71 75 76 78 81 82 84 84 85 92 77 76 77 80 87 83 77 76 74 76 72 72 70 71 70 75 81 81 93 92 94 94 93 86 80 71 73
71 77 80 80 83 83 84 84 86 86 90 89 79 81 81 84 89 89 89 81 84 82 83 73 79 75 85 85 100 97 93 98 98 96 83 75 72 75
78 81 80 78 73 75 87 89 87 87 89 89 85 81 81 84 88 92 98 95 95 91 95 83 84 86 91 97 100 98 99 97 97 90 81 77 77 76
68 54 55 68 73 85 90 91 89 92 89 86 85 81 79 79 86 96 97 100 99 98 99 96 97 100 100 100 100 100 100 100 99 89 83 80 80 78
52 48 55 68 63 74 77 59 75 90 86 87 88 84 85 84 90 86 95 93 99 100 100 100 100 100 100 100 100 100 100 99 99 94 86 81 81 80
52 49 54 66 69 76 53 61 76 90 91 91 91 90 85 89 88 85 93 94 97 95 100 98 100 100 99 100 98 100 100 99 98 91 82 80 82 81
51 54 54 64 79 67 63 66 74 76 79 84 90 85 85 83 87 90 86 96 92 90 100 97 100 100 100 100 100 100 98 100 94 89 84 82 82 80
60 60 66 76 76 74 70 71 76 79 83 87 89 88 92 95 96 97 98 96 99 100 100 98 100 98 100 100 100 100 99 100 99 92 83 82 81 80
61 64 74 74 73 71 72 74 76 82 84 87 90 94 96 94 99 100 96 98 98 99 100 94 100 100 100 100 100 100 100 99 94 79 78 79 81 80
66 82 72 66 68 69 73 76 84 84 88 94 94 94 97 99 98 100 99 98 98 98 97 94 99 96 97 99 99 99 100 98 86 76 76 77 79 79
70 73 69 68 70 74 78 80 92 93 94 96 98 98 98 100 100 100 100 100 98 100 98 96 98 98 97 96 98 98 98 89 74 72 74 80 78 76
80 71 74 72 74 75 72 83 86 91 96 98 97 97 98 100 99 100 100 100 100 96 100 98 97 97 96 96 95 95 76 64 69 77 79 73 72 69
72 72 67 69 70 76 80 82 88 98 99 97 96 96 99 100 100 99 100 99 98 99 99 99 96 98 97 95 88 80 68 63 60 58 54 50 46 56
79 69 72 70 71 71 79 85 89 100 99 98 98 99 100 98 98 98 98 98 97 98 98 97 98 81 83 71 72 87 63 64 62 58 55 57 56 53
64 74 69 72 77 81 83 84 84 98 99 99 98 99 98 98 97 98 98 97 96 96 96 96 82 60 54 54 87 70 76 76 69 76 75 67 52 47
69 74 79 80 84 84 90 89 88 95 97 98 98 99 98 97 97 97 97 97 95 96 97 100 98 80 58 65 85 88 92 86 73 71 76 84 74 56
77 84 85 83 85 90 91 94 95 98 99 98 98 98 98 97 98 97 98 97 96 98 100 100 96 89 88 74 53 96 77 80 81 87 82 87 78 66
81 78 83 83 90 94 94 94 96 97 98 98 98 98 98 98 97 97 97 96 94 98 100 99 93 79 87 79 92 56 96 92 82 74 63 64 69 80
84 85 86 86 95 92 93 96 97 98 98 98 97 98 97 97 98 97 97 88 89 95 100 100 98 97 92 94 90 76 51 58 70 68 75 80 85 92
86 90 88 92 93 95 96 97 97 97 98 98 97 97 97 97 97 94 87 91 90 88 94 94 88 93 92 94 96 93 79 79 79 83 98 96 89 99
93 94 91 94 94 96 97 97 97 98 98 97 97 97 97 97 88 87 88 85 82 79 75 74 78 80 89 91 93 94 91 92 89 90 89 96 100 100

GFSNE_925_rhum_015.txt.gz
RH
77 72 72 78 84 86 88 90 92 89 80 68 71 72 77 83 81 76 77 79 75 74 74 70 72 67 68 71 77 78 81 82 75 81 94 92 89 88
64 70 75 81 84 85 86 87 87 89 94 76 74 73 76 78 82 83 80 75 79 79 79 80 79 82 79 73 76 81 80 78 74 82 97 97 96 94
67 75 78 85 84 76 70 74 81 86 91 77 74 76 79 81 81 83 84 92 89 84 82 82 77 83 80 77 81 77 85 83 78 80 95 100 99 96
73 78 87 63 58 60 70 71 84 87 91 85 79 78 79 80 84 84 84 88 99 95 87 85 83 84 84 87 91 86 83 87 87 86 99 98 98 99
78 72 55 54 56 68 71 74 89 83 59 71 80 82 81 82 86 85 84 78 76 92 94 91 94 94 99 95 97 100 89 96 93 98 100 100 100 97
52 52 52 51 52 62 73 76 72 66 73 80 80 78 77 77 82 87 89 83 89 84 79 85 93 100 99 96 96 100 100 100 100 100 100 98 99 97
43 37 39 52 54 49 59 81 77 72 74 72 72 75 75 77 80 84 86 80 78 89 92 92 98 100 100 98 100 100 100 100 99 100 100 99 100 96
46 52 62 59 56 68 74 73 72 76 75 74 75 74 74 76 82 86 85 86 89 75 92 98 97 100 100 100 99 99 100 100 100 100 100 100 99 96
56 59 61 63 70 81 73 69 74 74 72 75 76 75 80 78 84 87 87 86 85 87 99 96 98 100 100 99 100 100 99 100 100 100 100 100 100 96
62 63 66 70 75 66 65 68 73 73 74 76 74 81 88 89 92 92 91 91 90 95 99 97 92 98 100 100 100 100 99 99 99 99 100 100 100 100
68 70 72 70 69 62 65 74 74 70 73 75 85 91 86 91 96 96 95 89 90 92 99 97 99 100 100 100 100 100 100 100 100 100 100 100 100 99
81 91 76 67 63 66 66 77 98 96 90 96 91 92 91 93 98 100 98 96 96 96 97 99 99 96 98 100 100 100 100 100 100 100 100 100 100 95
96 73 73 70 71 66 62 84 90 92 97 98 91 91 90 93 99 99 100 100 97 97 94 100 99 100 97 97 98 100 100 100 100 100 100 100 91 89
72 77 88 70 62 64 64 64 73 85 87 90 96 94 90 97 98 100 100 100 100 100 99 99 96 96 97 97 96 98 99 100 99 100 100 92 87 91
76 93 67 64 66 70 72 75 81 86 94 94 94 91 96 99 100 99 98 98 98 98 99 99 99 98 98 96 95 96 97 98 98 96 86 89 87 79
99 74 67 66 73 75 81 81 85 86 91 96 97 97 99 99 99 98 98 97 97 97 97 97 98 98 97 97 96 96 97 93 97 96 89 80 74 71
68 75 72 76 80 78 79 80 84 85 96 95 98 96 94 97 98 98 98 97 97 96 96 97 96 87 83 88 93 92 92 90 85 69 63 63 58 52
70 77 80 80 84 84 82 85 89 89 96 96 97 96 96 97 98 97 98 97 96 96 96 97 95 83 59 72 66 87 76 79 79 70 67 71 67 56
81 85 87 86 86 84 88 94 92 94 98 96 98 97 97 98 98 97 97 97 96 96 97 95 86 79 76 76 71 72 75 79 80 87 75 73 73 56
86 84 89 91 89 90 91 93 94 95 95 97 97 98 98 98 97 97 97 96 95 96 98 94 86 84 84 80 88 86 89 77 80 85 86 83 74 65
84 84 89 90 91 92 93 95 96 95 96 98 97 98 97 98 97 97 97 91 92 94 96 99 100 95 88 75 70 73 54 70 70 67 61 69 83 89
87 90 91 92 93 94 95 96 96 95 96 98 98 97 97 97 97 96 94 91 91 90 96 100 95 90 87 87 93 94 79 79 83 92 86 82 87 97
91 96 91 93 95 95 97 96 96 96 98 98 98 97 97 97 93 88 84 80 76 79 79 84 85 93 96 95 99 97 93 90 90 94 97 99 97 98

GFSNE_925_rhum_018.txt.gz
RH
56 62 74 81 84 91 89 85 87 89 80 65 68 70 74 77 81 80 85 89 88 88 90 90 92 92 94 94 92 85 86 86 86 83 79 80 80 85
44 65 74 83 88 78 61 67 74 80 86 61 64 68 73 78 79 76 77 80 80 83 83 94 98 99 97 92 93 91 91 89 85 88 82 83 80 87
54 60 83 76 58 60 56 72 72 66 81 71 70 68 48 55 72 83 86 86 83 80 75 78 81 95 96 94 96 96 94 99 95 94 89 88 83 90
58 67 58 54 55 54 58 57 62 71 80 84 71 70 63 70 73 71 75 76 79 87 85 77 79 74 88 96 97 96 99 100 100 99 94 92 87 91
68 56 48 42 40 50 59 61 61 67 84 84 76 70 73 75 79 74 72 74 80 86 88 90 86 75 75 84 94 98 100 99 100 100 95 96 92 95
56 51 49 50 58 65 60 62 69 77 78 75 78 74 70 71 77 78 77 76 78 78 83 82 84 82 78 77 89 95 98 99 100 100 90 98 97 98
54 57 57 61 62 61 64 71 74 72 70 72 78 79 72 68 71 69 74 76 76 77 81 80 79 87 94 90 94 94 96 99 100 99 99 98 100 100
62 64 63 64 65 67 69 66 64 65 66 69 73 79 70 68 71 71 77 83 87 74 80 82 79 88 94 98 99 99 98 97 99 93 99 100 100 100
68 68 69 70 74 79 73 68 69 67 69 69 74 76 83 84 77 78 94 93 89 80 78 86 81 86 91 94 98 89 83 97 98 96 100 100 100 100
70 73 75 84 84 67 67 81 93 94 76 78 81 89 97 97 98 97 87 92 96 90 87 96 82 87 91 86 88 91 94 98 92 100 100 100 100 100
75 76 89 76 66 70 96 91 80 82 79 73 79 79 82 87 81 91 96 96 95 95 95 93 88 88 99 98 96 90 92 98 100 100 100 100 100 99
77 97 71 62 69 77 62 67 85 72 73 89 94 86 86 82 82 91 100 98 97 96 88 97 96 99 99 98 99 99 99 100 100 100 100 100 100 100
95 71 68 73 96 60 60 69 72 68 93 94 84 87 85 89 96 99 100 100 98 96 96 100 96 99 97 95 99 100 100 100 100 100 100 100 100 100
72 70 82 94 64 62 68 70 69 75 81 89 89 89 86 91 92 94 98 100 99 98 97 99 98 99 97 97 97 98 100 100 100 100 100 100 100 99
74 88 87 69 65 71 73 70 72 81 90 93 91 89 88 92 94 94 99 98 98 97 96 99 99 98 98 97 96 97 98 99 100 99 100 100 100 100
99 92 72 65 70 72 76 77 81 84 90 95 94 94 91 96 91 95 98 98 97 96 96 97 97 98 97 97 97 96 98 96 99 100 100 100 100 100
62 66 70 75 78 79 79 80 81 85 93 94 94 92 89 97 92 98 98 98 97 97 96 97 96 97 97 97 96 97 97 97 98 98 99 97 98 97
63 75 79 78 76 82 83 84 85 85 93 95 94 93 94 96 96 98 98 97 96 96 96 96 96 92 89 95 97 96 96 96 96 97 94 83 81 71
76 88 83 82 84 87 86 89 91 93 97 95 95 95 97 96 97 97 97 97 96 96 96 93 92 91 84 91 89 84 84 92 88 77 66 58 62 54
83 86 85 88 89 89 90 92 94 94 95 95 95 97 97 97 97 97 97 96 94 95 94 94 98 94 86 82 86 95 69 74 76 85 81 71 68 62
84 86 88 90 92 91 92 95 96 95 96 96 96 97 98 98 97 97 97 91 91 93 94 95 100 98 80 66 68 74 90 77 63 68 80 76 80 84
90 93 91 94 93 93 95 96 95 95 95 96 97 98 98 97 98 96 95 94 93 92 95 94 86 83 77 83 94 93 82 79 90 74 64 78 84 99
94 96 94 95 95 96 96 96 96 96 96 97 98 98 96 97 93 87 79 73 72 78 83 86 87 86 95 96 97 97 95 96 96 96 97 88 97 98

GFSNE_925_rhum_021.txt.gz
RH
47 47 56 67 78 75 75 64 70 77 66 53 48 46 48 57 69 69 57 47 70 83 87 87 86 80 88 91 92 87 96 88 98 92 91 92 86 82
41 50 62 66 59 59 58 54 55 66 76 52 46 43 50 72 68 63 56 77 64 42 48 63 81 89 91 88 95 95 93 92 95 100 99 97 96 90
49 53 66 55 50 47 43 50 60 56 64 55 58 55 71 67 63 62 64 66 71 67 58 75 81 84 86 89 90 90 94 98 100 100 100 100 98 98
51 59 58 50 48 46 48 55 62 61 66 70 61 88 63 62 68 72 72 69 71 71 70 75 76 71 82 88 91 89 86 92 99 99 97 96 100 94
53 56 53 52 53 54 62 64 66 67 71 80 71 64 63 62 65 64 66 71 71 74 71 76 76 79 78 74 82 89 85 80 88 97 95 97 96 93
56 57 56 58 59 64 64 66 68 72 74 72 75 68 62 62 66 65 63 66 69 70 69 71 73 75 77 78 84 84 78 87 89 93 95 96 97 99
61 60 61 65 67 66 66 70 73 72 85 75 70 69 71 70 67 65 68 67 69 70 68 70 73 77 86 81 76 89 94 94 93 89 93 97 100 100
65 65 65 66 68 67 75 66 62 67 77 90 83 76 69 64 67 72 76 82 88 73 78 83 70 71 72 74 78 83 86 96 99 97 87 84 97 100
65 67 70 70 76 89 73 65 80 91 68 68 81 87 87 76 79 95 92 90 95 96 90 77 78 84 81 80 77 77 85 95 92 91 93 95 99 97
65 67 71 83 78 64 68 97 83 61 62 73 73 70 72 83 90 96 99 95 88 87 84 96 85 89 88 87 87 82 91 91 82 90 98 98 95 97
67 69 86 70 62 67 98 88 64 66 68 67 71 75 79 77 76 90 95 93 88 77 75 96 94 93 86 96 93 88 89 83 82 85 84 94 100 100
77 82 67 60 62 94 67 64 71 72 79 80 78 78 79 83 78 92 99 97 94 91 80 98 90 89 98 100 99 94 86 78 81 89 99 100 100 100
92 70 65 68 98 64 60 66 72 67 74 76 80 83 81 82 80 92 99 100 97 92 82 96 96 96 98 97 98 88 94 95 100 100 100 100 100 95
74 68 83 88 58 60 64 68 67 70 77 85 84 83 81 82 87 92 93 99 99 99 99 98 95 90 95 97 96 99 100 100 100 100 100 100 100 100
72 85 68 56 59 66 66 68 71 78 86 90 86 84 83 88 93 93 91 98 99 98 98 97 98 97 97 97 95 96 99 99 100 100 100 100 100 100
98 62 59 59 68 66 70 73 77 80 87 91 92 91 91 90 88 88 97 96 97 98 97 96 97 98 96 98 97 94 98 98 100 100 100 100 100 100
59 63 65 71 75 72 73 76 78 81 90 92 92 91 90 90 90 97 97 97 94 93 94 98 97 98 98 98 94 97 97 97 99 99 99 99 100 100
65 70 74 77 76 76 80 81 83 84 92 93 93 93 94 94 95 96 98 96 94 93 93 96 97 96 96 97 98 96 97 97 98 99 99 94 97 99
73 79 80 80 81 83 85 88 91 92 96 95 95 95 95 96 96 96 96 96 93 91 92 96 92 87 94 92 96 98 96 98 98 97 98 96 94 98
80 86 86 84 85 88 90 93 94 94 94 95 95 95 97 97 96 96 93 89 85 85 85 91 92 90 79 80 79 93 89 96 93 85 86 83 76 80
84 86 84 88 89 91 92 95 95 95 95 96 95 97 97 97 94 93 88 84 82 84 83 86 98 98 72 71 72 80 98 74 73 72 72 62 65 68
86 88 89 91 92 94 96 96 95 95 95 96 96 98 100 97 90 85 75 73 72 77 83 92 88 85 89 74 77 80 86 93 72 55 56 60 70 71
93 93 93 94 95 96 96 96 95 96 96 97 98 100 97 89 81 76 82 96 94 93 93 90 92 96 96 92 87 87 93 91 88 91 99 98 100 81

GFSNE_925_rhum_024.txt.gz
RH
30 32 36 38 48 49 47 44 47 52 43 36 36 34 28 31 36 42 54 58 59 59 55 64 58 57 67 71 76 84 86 90 94 99 88 92 91 99
30 34 38 40 48 45 40 37 36 39 52 44 44 42 43 44 46 64 60 53 53 54 58 66 70 67 68 79 84 90 90 90 90 93 97 98 99 94
35 36 39 41 43 40 39 39 40 43 52 51 52 52 48 49 50 44 45 47 50 49 54 59 64 65 74 78 78 77 90 93 91 91 92 96 97 98
37 39 41 41 42 41 42 43 47 48 52 62 59 53 54 50 52 50 48 48 49 49 51 55 60 63 66 73 77 84 83 73 82 88 84 94 100 99
40 43 44 46 45 45 48 50 51 53 62 65 61 60 58 54 52 52 53 53 51 49 48 50 54 58 64 68 74 77 82 86 89 83 75 87 85 96
46 48 49 49 49 53 55 53 58 72 67 60 64 64 62 61 57 57 56 54 53 55 56 57 62 65 66 67 72 74 83 84 86 92 86 87 86 90
50 48 48 52 59 60 61 69 80 71 69 70 71 74 61 55 57 58 60 60 59 60 66 65 64 68 69 70 71 63 69 72 85 90 99 92 93 94
49 48 48 50 50 59 64 60 60 70 84 96 80 71 56 59 64 61 62 68 76 63 62 69 75 76 72 70 66 71 72 75 77 82 84 85 96 93
49 49 48 48 60 68 58 56 61 74 80 69 64 62 67 66 67 73 76 86 94 81 80 79 67 72 74 79 81 78 79 82 86 86 87 92 92 88
50 51 51 61 65 55 56 71 96 66 56 57 60 65 79 85 90 94 94 89 82 78 73 95 78 76 73 75 78 84 88 92 92 92 91 87 83 82
51 52 67 62 53 57 86 85 63 63 56 56 66 66 64 66 72 79 91 91 86 74 71 86 80 86 97 92 78 73 95 95 97 99 99 95 89 87
58 67 57 55 57 78 73 60 70 63 69 82 69 67 70 72 71 77 98 95 92 88 68 92 86 82 86 66 87 96 93 87 98 98 97 98 99 100
80 66 59 59 80 61 55 60 62 65 71 68 71 74 74 74 75 82 94 98 94 92 79 86 93 87 93 87 73 76 86 90 90 86 99 99 100 99
72 65 67 86 55 55 59 60 62 64 68 74 78 77 77 80 82 85 88 92 97 98 96 100 97 96 91 87 84 74 93 97 100 100 100 100 100 100
65 73 78 55 56 59 59 60 63 66 76 85 84 83 82 84 89 92 94 93 98 99 99 99 98 96 96 92 89 88 99 99 100 100 100 100 100 100
83 91 56 54 55 58 60 63 66 72 86 93 92 91 89 90 93 94 96 95 97 96 98 96 96 98 95 95 95 97 99 99 99 100 100 100 100 100
82 62 56 56 62 64 64 66 70 83 93 92 93 92 92 93 93 96 97 97 94 93 92 97 97 97 98 98 94 98 97 99 100 100 99 99 100 100
64 60 62 68 70 69 70 73 85 90 93 94 94 94 94 94 95 96 97 96 93 92 92 95 93 95 96 96 98 96 97 98 99 100 99 95 98 100
65 69 72 73 74 75 77 87 92 93 96 95 95 95 95 96 96 95 92 84 80 80 83 90 89 94 93 92 96 98 96 98 98 97 99 89 96 100
73 75 75 77 78 80 89 94 93 94 94 95 95 95 96 94 90 89 87 85 80 78 78 85 89 92 94 94 91 97 97 98 95 95 96 98 99 99
75 76 78 80 82 89 94 95 96 95 95 96 95 95 94 92 84 77 70 70 69 71 79 86 97 93 80 83 88 93 98 97 97 94 98 92 91 95
79 82 84 85 88 96 96 95 95 94 94 95 94 95 91 87 78 87 91 91 92 93 93 96 97 87 75 70 83 83 81 96 97 88 87 74 66 75
85 88 89 90 95 96 96 96 96 95 96 96 96 96 97 95 95 82 82 90 93 91 90 88 91 88 79 76 77 79 79 71 75 94 100 100 64 55

GFSNE_925_rhum_027.txt.gz
RH
27 30 31 34 37 38 45 47 49 53 46 37 37 37 42 42 42 45 45 47 46 50 51 49 49 53 58 64 71 68 66 68 70 80 82 87 89 95
28 31 33 35 36 40 42 43 42 44 51 42 42 44 46 50 49 49 48 49 46 44 46 46 48 52 53 58 61 65 65 67 80 72 74 81 87 89
30 33 35 37 39 40 42 43 44 45 51 48 47 50 54 54 52 52 52 52 50 45 44 46 47 50 50 53 57 62 65 67 69 74 83 87 89 85
34 36 38 40 43 44 45 45 47 49 51 57 55 60 57 52 54 54 56 54 52 49 44 46 48 46 49 50 55 59 63 67 70 76 81 85 85 91
39 41 43 45 46 45 48 52 53 56 63 69 65 60 57 58 60 63 55 46 47 50 48 47 47 52 57 56 56 62 66 69 72 76 86 88 89 90
47 46 46 45 45 49 53 57 67 69 77 72 67 65 65 65 68 57 51 53 57 58 52 48 51 53 54 56 58 64 76 74 74 66 87 83 98 96
52 48 44 45 47 49 50 61 66 86 70 71 75 77 86 70 61 54 58 60 59 58 59 61 62 71 74 67 66 72 66 74 73 72 71 74 82 91
52 47 46 45 44 48 56 56 63 58 62 89 94 93 68 56 60 61 64 70 78 65 70 76 69 69 68 69 66 64 65 67 70 74 75 78 83 88
50 48 47 46 52 63 64 59 64 66 86 59 62 67 62 61 64 79 84 86 80 74 77 79 77 76 76 72 69 62 63 73 75 76 81 87 90 90
51 50 50 57 67 60 58 84 89 79 60 59 58 59 66 80 84 79 89 92 84 78 72 91 72 86 72 77 77 78 80 75 80 83 85 92 91 88
55 54 62 64 58 58 80 97 74 63 59 56 62 63 62 64 66 72 90 92 86 76 73 77 77 85 82 85 73 70 81 99 100 100 95 96 94 95
65 75 64 56 60 76 74 61 68 62 78 74 65 65 66 68 67 71 89 95 92 90 70 83 86 86 89 72 83 88 78 76 90 100 95 99 98 98
90 72 66 58 82 66 54 57 59 66 66 66 68 72 74 75 77 80 86 96 94 92 80 84 94 91 92 91 74 73 74 79 98 98 97 94 89 95
77 70 64 92 60 53 54 55 57 60 65 74 80 78 78 81 86 90 92 96 98 98 97 100 95 96 95 93 86 73 76 90 100 100 99 91 96 99
66 68 90 56 54 54 56 58 60 65 81 92 89 87 89 94 97 96 96 96 98 99 99 99 98 98 98 94 91 87 90 95 100 100 100 100 100 100
90 92 58 54 55 57 61 63 66 77 94 94 94 93 94 95 95 97 97 97 98 95 94 98 98 98 96 96 97 93 96 99 99 100 100 100 100 100
67 65 58 59 64 66 66 67 74 91 94 94 94 94 93 94 94 96 98 97 93 91 87 91 95 96 94 99 98 99 98 99 99 100 99 99 100 100
62 61 63 69 70 71 72 85 90 90 94 95 95 95 95 95 95 88 88 86 88 85 87 92 96 95 97 96 99 98 99 99 100 100 100 97 98 100
65 69 73 74 75 76 85 94 93 93 97 96 95 94 93 93 88 86 84 84 84 83 89 94 95 95 95 95 96 98 98 99 98 98 99 98 98 100
72 74 78 78 78 88 94 94 94 93 94 95 94 95 96 96 95 94 94 95 95 86 88 90 95 95 95 96 96 98 97 98 96 97 98 100 100 100
77 81 80 80 90 96 96 95 96 95 94 96 95 96 96 97 94 95 95 92 94 96 94 93 99 92 96 96 94 95 99 98 98 96 89 92 96 98
83 82 84 87 96 96 96 96 96 94 95 96 96 97 97 97 96 96 95 95 95 97 97 97 88 79 84 93 95 96 96 99 98 98 95 86 90 97
85 88 90 95 97 97 97 96 96 96 96 97 97 98 97 96 98 98 98 97 98 97 97 97 90 82 82 82 86 93 97 97 98 97 94 66 78 92

GFSNE_925_rhum_030.txt.gz
RH
25 27 30 34 36 38 40 45 51 63 56 46 44 44 46 47 47 49 52 51 48 46 49 49 49 50 49 48 47 51 53 55 59 61 62 62 76 80
26 30 33 37 39 41 43 46 48 52 60 48 50 50 50 52 56 54 54 50 53 51 52 52 51 50 48 46 50 52 54 51 53 56 60 61 57 69
32 37 40 41 43 45 47 50 51 51 60 55 52 53 60 60 58 56 56 56 56 54 54 52 46 42 47 49 52 49 46 50 54 56 54 65 66 74
43 47 47 48 48 49 50 49 52 54 55 61 65 67 64 64 62 61 60 63 65 61 49 47 46 48 53 55 48 48 50 59 58 59 58 59 59 60
53 56 56 54 52 50 49 52 53 58 70 78 72 70 71 64 64 66 87 67 57 53 48 50 52 51 51 52 53 57 58 56 61 68 75 75 69 76
61 62 60 56 51 51 52 52 56 66 67 70 84 90 69 72 91 85 62 58 58 58 56 58 58 58 59 60 65 69 68 62 63 64 74 75 82 73
66 66 59 53 51 50 50 57 60 61 89 96 77 72 92 62 65 64 63 61 60 64 67 69 69 69 69 68 66 68 67 70 68 66 65 78 96 81
68 61 57 54 51 54 57 56 60 75 80 91 95 77 59 60 73 66 65 71 84 73 76 82 74 73 75 73 73 67 90 69 97 84 74 65 78 70
63 61 59 56 57 63 68 68 92 84 73 70 68 64 65 78 69 82 91 95 92 83 79 82 75 76 75 79 64 69 72 73 82 74 82 80 84 82
63 63 63 64 70 68 73 92 93 96 76 69 60 64 74 79 80 82 85 85 84 80 74 89 78 84 72 73 71 73 70 74 68 71 74 66 71 89
65 67 73 75 72 61 73 98 81 78 70 60 75 71 62 63 65 74 92 93 87 77 75 79 78 85 81 82 79 74 83 98 98 98 97 95 90 98
68 87 79 66 59 77 83 67 78 62 75 85 67 66 70 75 73 82 95 94 92 90 68 84 89 87 90 72 77 83 71 78 76 71 76 95 100 100
95 82 77 64 87 75 58 61 60 68 75 66 69 77 80 80 84 90 98 98 94 92 82 90 94 93 95 93 86 79 97 84 80 81 84 95 93 95
81 70 72 88 62 58 59 58 61 65 68 77 85 86 87 93 94 96 98 98 99 98 97 99 96 97 96 93 86 70 78 83 96 98 100 99 99 98
71 78 86 61 58 60 62 62 65 73 93 94 90 90 94 97 98 98 96 95 99 97 88 86 96 98 98 95 94 89 91 86 98 99 100 100 100 100
92 95 67 59 61 65 68 70 77 91 95 95 94 95 96 94 95 97 97 96 95 90 94 96 97 98 97 96 96 94 95 97 99 100 100 100 100 100
76 71 64 67 72 73 73 75 83 93 96 96 95 94 92 91 91 92 97 95 95 94 92 91 95 97 92 98 96 97 99 99 100 100 99 98 100 100
69 67 71 76 81 78 82 89 90 92 95 96 95 95 95 94 94 93 96 96 95 93 95 94 96 91 96 91 98 98 99 99 100 100 100 96 98 100
71 76 81 84 82 86 92 94 94 94 95 96 97 96 96 95 92 95 95 94 91 95 95 96 96 94 94 95 96 98 98 99 99 98 99 98 98 100
78 84 86 83 89 94 95 95 95 94 95 96 96 96 96 96 95 93 94 95 95 94 94 91 96 96 96 96 96 98 98 99 98 98 98 100 100 100
86 84 85 90 96 96 96 96 96 96 95 97 96 97 96 97 94 94 95 88 89 94 95 94 99 99 96 93 92 94 99 99 100 100 100 96 97 97
84 89 91 94 97 97 97 97 97 96 96 97 96 97 98 98 97 96 96 96 95 98 98 90 83 96 96 92 96 96 97 99 98 99 97 92 93 96
94 95 95 96 98 98 98 98 97 97 98 98 98 98 98 97 98 99 98 98 98 98 98 92 84 84 97 97 94 96 96 97 90 97 100 98 100 100

GFSNE_925_rhum_033.txt.gz
RH
27 30 31 36 42 44 45 50 58 68 59 52 51 49 52 52 50 54 56 55 50 51 51 52 53 52 54 58 55 54 51 52 51 56 52 48 55 50
34 35 39 45 49 50 51 52 54 60 69 52 52 52 52 55 61 59 58 58 56 56 57 54 56 55 60 64 53 47 50 50 48 48 48 60 55 47
37 46 53 55 57 58 57 56 59 57 62 55 54 55 60 65 61 64 68 64 62 61 63 72 66 51 50 48 50 51 48 58 65 61 52 63 66 66
46 54 60 62 64 63 61 58 55 55 58 62 63 74 70 65 67 77 66 77 75 72 63 55 51 49 51 51 53 57 52 50 49 49 50 45 56 71
52 60 64 68 69 66 59 59 57 60 72 81 80 65 66 89 71 73 86 64 58 56 54 51 52 53 55 57 57 57 58 61 71 71 71 72 67 62
54 58 64 70 67 62 59 57 65 64 64 65 73 93 70 72 91 57 55 58 64 62 60 59 60 61 60 60 60 61 64 64 63 63 64 63 62 60
53 59 65 65 61 58 58 59 61 72 90 96 80 76 93 64 62 62 65 68 69 66 67 71 80 81 74 68 66 65 66 68 68 69 69 71 70 65
57 61 65 66 63 61 62 62 67 70 86 94 96 77 68 68 69 67 74 91 89 72 72 75 72 72 73 73 72 68 71 78 85 61 93 70 75 81
57 62 66 67 69 78 78 72 82 86 83 83 73 76 77 71 79 96 93 90 89 82 80 81 75 75 73 78 71 67 67 63 64 71 75 80 82 76
61 64 68 79 87 69 73 76 94 92 81 74 68 73 88 89 74 79 96 96 91 80 73 91 80 80 74 74 73 74 73 73 77 86 80 80 80 70
65 69 84 77 69 63 86 97 92 87 65 67 81 71 64 66 75 93 93 92 86 74 72 84 85 86 84 84 81 77 76 78 86 98 98 96 99 93
85 90 76 63 60 90 78 78 71 65 87 91 68 68 73 79 82 93 98 94 92 90 68 88 89 91 92 71 73 76 72 76 74 73 72 78 79 74
91 81 71 69 97 63 58 64 65 75 86 72 75 82 88 92 90 96 98 98 94 92 84 95 94 95 93 93 85 85 85 86 88 90 81 79 80 81
81 73 83 91 61 61 64 65 71 81 76 85 88 86 87 93 95 97 99 98 99 98 98 99 96 97 94 90 87 72 80 91 97 99 98 98 96 91
80 84 83 66 63 67 69 70 76 87 97 94 90 89 93 96 98 98 97 95 94 96 97 97 99 97 98 94 93 89 94 87 98 99 100 100 100 100
92 82 68 64 69 71 74 78 89 95 95 95 94 94 96 96 96 97 97 95 97 87 85 95 98 98 96 98 97 93 94 97 97 100 100 100 100 100
68 72 68 73 77 77 77 80 84 90 95 95 95 95 93 94 93 94 97 96 94 94 90 91 94 91 97 99 95 95 97 98 100 100 100 98 100 100
73 72 77 83 83 82 86 89 89 88 95 96 95 95 95 94 94 90 94 94 95 93 94 92 96 89 88 88 98 98 98 99 100 100 100 96 97 100
76 83 86 84 86 88 92 94 93 94 97 96 97 96 96 95 91 94 93 92 90 95 94 93 96 96 94 95 81 99 98 99 99 98 99 98 98 100
85 86 87 89 92 94 95 95 95 95 96 97 96 97 97 97 95 94 94 95 95 92 90 93 96 97 96 96 96 97 99 99 99 99 98 100 100 100
85 86 89 94 96 96 96 96 97 96 96 97 96 97 97 97 95 96 96 89 91 95 93 94 98 99 97 91 93 93 98 100 100 100 100 96 96 96
89 93 94 96 97 98 98 97 97 96 97 97 97 98 98 99 97 97 97 96 96 98 97 87 96 96 97 93 96 96 96 100 100 100 100 99 97 97
97 98 97 98 99 99 99 99 98 98 98 97 98 98 100 98 98 99 100 99 99 98 94 87 94 95 97 97 93 96 96 98 98 98 100 100 100 100

GFSNE_925_rhum_036.txt.gz
RH
31 35 37 45 50 54 57 60 67 76 68 56 56 52 52 53 53 54 56 60 59 58 53 55 56 56 55 55 54 54 58 64 73 66 54 45 47 53
37 42 47 53 59 62 63 66 66 67 76 60 56 55 56 57 59 60 64 64 61 59 61 60 59 60 73 71 76 70 54 58 54 55 49 56 59 56
42 47 53 59 62 65 69 70 69 68 70 61 60 62 69 71 68 67 68 69 72 67 68 63 55 54 54 55 59 59 60 53 51 52 57 59 65 70
45 50 55 60 62 68 72 72 68 66 66 75 81 70 62 60 64 78 75 82 73 68 53 53 51 52 52 53 53 56 61 57 57 58 54 52 52 55
47 52 55 59 65 70 72 69 65 66 68 67 67 65 66 83 69 82 82 59 57 55 54 56 58 58 60 60 58 58 66 69 69 69 68 65 66 68
47 51 55 59 66 71 67 65 74 68 71 75 81 91 79 70 91 62 59 61 61 62 63 66 66 62 61 62 63 65 72 75 68 65 62 58 54 68
51 53 59 63 65 61 63 68 69 86 95 94 74 75 93 63 65 68 69 69 70 81 89 70 68 71 71 68 67 65 65 66 64 66 68 73 73 72
58 59 62 68 67 67 67 66 68 69 71 94 94 74 72 71 72 72 84 93 84 67 70 84 76 74 74 74 72 70 68 70 73 83 84 88 82 90
63 65 68 70 79 86 79 66 73 91 81 76 77 75 74 77 97 95 88 90 88 81 84 85 77 78 76 75 72 71 70 69 71 76 75 80 82 78
68 69 72 87 79 66 70 86 95 85 84 70 66 78 94 83 76 92 98 96 89 77 72 92 80 82 79 79 78 77 76 76 75 75 76 80 76 77
71 76 87 77 67 71 96 88 75 70 63 73 88 72 68 72 84 97 92 92 85 73 72 79 81 84 84 84 82 78 76 77 75 81 88 93 94 93
89 91 82 66 69 90 67 67 72 69 97 92 72 74 78 82 82 92 98 94 91 88 68 87 88 90 92 72 72 75 79 79 75 76 75 73 72 91
78 76 74 82 81 62 62 70 76 91 87 77 82 84 83 84 86 94 98 98 94 91 82 94 93 90 93 91 78 76 76 78 86 94 92 86 74 73
79 81 94 78 65 66 70 73 80 77 82 88 88 84 86 92 94 97 98 98 98 97 96 99 96 96 94 90 87 72 78 86 97 98 99 99 97 84
86 79 74 68 69 72 75 74 74 82 93 94 89 89 92 96 98 98 97 95 95 95 97 97 99 98 97 94 93 87 92 87 95 99 99 99 98 99
92 85 70 70 73 75 77 77 81 84 88 94 94 94 94 93 94 93 96 96 96 87 84 86 98 99 96 96 96 93 90 96 97 99 100 100 100 100
70 75 73 78 80 80 79 81 84 86 92 94 95 95 93 93 93 92 96 95 93 91 90 86 90 94 96 98 95 95 96 96 100 100 100 100 100 100
77 77 82 85 85 85 88 89 90 89 95 97 96 96 95 95 95 92 94 94 94 91 92 94 96 92 81 75 98 97 98 98 99 100 100 96 97 100
82 87 88 88 89 91 92 94 93 93 96 97 98 97 96 96 92 93 93 93 90 93 91 97 97 95 92 92 73 98 98 98 99 98 99 97 96 99
89 90 91 92 93 95 96 96 96 96 97 98 97 98 97 97 95 93 93 95 95 92 89 94 96 96 96 96 96 96 100 99 99 98 98 99 100 100
90 91 93 95 96 97 97 98 98 97 96 97 97 97 97 98 94 95 96 91 92 95 94 93 98 99 96 84 87 92 99 100 100 100 100 97 97 96
93 95 96 97 98 99 99 99 98 97 97 97 97 98 98 98 96 97 97 96 96 98 100 89 97 96 95 95 96 96 98 100 100 100 100 100 98 96
98 99 98 99 100 100 100 99 98 97 97 97 98 98 98 97 99 100 98 99 99 98 95 89 97 96 98 98 94 96 97 98 97 97 99 100 100 100

GFSNE_925_rhum_039.txt.gz
RH
31 38 43 47 53 55 57 68 76 83 72 58 59 61 60 59 58 59 59 61 60 61 58 54 54 58 65 68 71 71 70 69 67 66 65 68 71 70
38 43 45 49 54 58 59 66 75 79 85 66 65 63 63 67 66 65 65 66 65 60 60 60 61 56 54 60 61 58 70 60 65 78 79 70 69 67
44 46 47 50 56 60 61 69 78 79 81 71 67 70 68 62 62 63 64 67 70 70 71 65 55 56 55 54 60 62 62 68 69 64 72 68 67 69
46 47 48 51 58 62 67 75 77 77 77 86 84 69 65 66 70 74 85 94 89 72 59 54 55 55 56 59 67 78 71 64 60 62 62 62 64 67
48 50 53 58 62 67 70 76 78 79 85 76 73 73 75 82 82 94 84 61 58 56 57 58 59 61 62 66 67 72 81 76 76 75 75 72 70 69
55 57 58 60 66 71 68 67 79 70 74 80 81 82 83 93 76 65 60 62 65 67 70 70 69 69 64 61 62 62 64 66 66 67 70 72 76 76
64 61 62 68 67 65 65 67 71 84 91 82 93 88 72 61 66 67 70 72 86 81 71 71 71 70 70 73 71 70 70 70 68 67 69 71 74 74
62 62 65 71 71 70 70 68 65 70 88 95 91 77 70 70 71 77 95 84 85 71 73 90 82 78 77 76 74 74 73 71 73 81 86 79 81 81
66 68 71 75 80 87 82 70 90 90 74 71 76 75 73 79 98 94 89 90 87 81 85 88 77 77 74 73 72 74 76 78 76 81 84 84 80 81
69 72 78 86 88 70 83 99 79 73 71 68 68 84 98 79 75 93 99 97 90 78 72 91 78 78 76 77 76 75 74 75 80 82 81 75 79 81
73 87 86 77 69 75 91 76 73 74 66 77 94 73 71 76 85 98 92 93 85 74 73 80 82 85 84 84 82 81 76 75 76 83 74 74 77 82
92 78 77 69 70 89 65 71 79 74 96 93 75 78 82 84 81 90 98 94 91 88 66 88 89 89 90 70 68 75 82 79 77 78 79 78 73 74
69 81 79 79 77 64 66 74 80 89 86 79 84 86 85 84 87 93 97 99 95 92 83 95 93 90 92 91 80 76 77 81 89 91 88 92 90 92
86 84 88 77 69 69 73 77 75 75 80 85 90 87 88 92 94 99 100 100 100 98 96 100 96 96 94 90 86 76 80 90 98 98 98 99 98 98
80 76 74 73 71 76 78 77 76 82 90 95 91 90 94 98 99 98 96 95 96 95 94 96 100 98 97 94 93 88 94 87 90 98 98 98 98 98
80 78 76 72 76 78 80 80 84 86 91 95 95 95 96 95 96 96 97 96 96 86 84 87 98 99 96 94 97 93 90 96 98 100 100 100 99 100
73 80 77 81 83 83 83 84 86 89 93 95 96 96 95 94 94 94 97 96 94 90 88 88 90 95 92 95 95 92 96 98 99 100 100 100 100 100
81 82 85 87 88 88 90 91 91 92 95 97 97 97 96 96 95 93 96 96 94 90 94 92 95 92 80 72 97 97 97 98 99 100 100 98 99 100
86 90 91 91 92 93 94 95 95 95 98 99 99 98 97 97 93 94 94 93 91 91 91 96 96 95 93 92 73 88 98 98 99 98 99 99 98 100
92 93 94 94 95 96 96 97 97 97 98 99 98 98 98 97 96 94 94 95 94 93 91 86 93 96 96 97 97 95 100 99 99 98 98 100 100 97
94 95 95 96 97 98 98 99 100 98 97 97 98 98 98 98 95 95 96 92 90 94 93 90 98 99 94 86 86 94 99 100 100 99 99 98 95 87
96 98 98 98 99 100 100 100 99 98 97 98 98 98 98 99 97 96 96 97 95 97 99 87 94 95 95 96 96 96 96 100 100 100 100 100 98 96
99 99 100 100 100 100 100 100 100 97 98 97 98 98 98 97 99 99 99 99 100 99 98 92 92 94 97 97 96 96 95 96 98 97 98 100 100 100

GFSNE_925_rhum_042.txt.gz
RH
34 39 43 46 49 52 56 60 76 81 65 55 61 64 66 67 65 65 65 67 63 61 59 58 58 61 68 71 74 77 75 66 73 74 70 70 74 70
43 46 47 47 48 51 56 62 68 81 86 66 69 69 68 72 72 64 63 65 65 65 63 60 61 68 67 62 67 58 61 73 73 67 66 62 73 72
47 48 48 49 52 56 61 65 73 80 86 76 70 75 76 69 69 72 75 76 76 72 66 65 62 58 56 59 66 70 72 69 70 70 71 70 65 68
50 52 55 57 59 60 64 71 77 80 85 89 82 71 70 73 77 89 94 82 79 74 66 59 59 61 66 69 76 82 80 78 76 73 69 70 73 69
57 60 63 62 64 68 71 77 76 80 87 76 74 74 76 86 92 73 67 59 60 61 61 63 65 66 68 70 73 80 82 80 73 69 69 72 74 70
65 61 58 62 71 72 72 71 76 73 77 82 81 94 94 72 66 64 64 66 69 73 77 77 71 67 65 65 67 67 67 67 66 66 67 70 69 67
64 60 64 72 76 72 69 72 74 79 84 97 93 75 75 68 69 69 74 80 90 74 73 73 74 74 78 78 77 74 74 75 73 72 68 70 73 76
65 66 69 75 76 74 72 72 72 89 95 84 81 75 71 70 72 87 94 85 86 71 74 82 77 78 77 75 74 74 74 74 75 78 80 84 81 81
66 68 72 80 80 81 83 81 95 85 72 69 73 74 76 84 99 94 90 93 91 83 85 84 75 77 74 73 72 75 76 76 79 81 80 82 81 83
67 71 80 83 85 73 85 99 85 76 75 73 74 86 98 82 80 89 99 98 91 79 73 86 76 79 78 78 77 78 78 77 78 83 85 81 84 82
69 80 82 78 73 72 93 78 78 78 70 80 94 77 74 79 84 94 92 93 85 76 75 80 81 83 84 84 81 76 74 74 78 80 79 74 76 86
74 70 81 73 73 89 69 75 81 77 97 95 75 77 81 85 85 87 95 95 90 88 65 88 89 91 89 65 64 75 77 82 85 88 91 92 84 79
70 79 82 78 75 67 68 77 84 84 83 79 84 86 88 86 90 96 100 98 95 92 84 95 93 91 93 90 76 75 78 89 96 98 96 97 98 97
81 81 80 74 71 72 76 80 78 78 83 87 91 88 89 94 96 100 100 100 100 99 96 99 96 96 94 90 89 77 83 91 98 99 99 99 99 99
79 75 76 76 73 79 82 81 80 85 90 96 92 91 94 98 99 100 98 97 97 96 91 96 99 98 98 94 94 89 91 86 89 97 99 99 98 98
79 81 80 75 79 80 82 83 86 87 92 95 96 96 98 96 98 97 99 97 97 89 86 90 97 99 96 94 97 93 89 96 98 100 100 100 99 98
75 82 80 84 86 85 85 86 87 90 94 96 97 97 96 96 95 95 98 96 95 91 90 88 89 95 93 94 96 90 96 95 99 100 99 99 98 100
84 85 88 90 90 90 91 92 93 93 96 98 98 98 97 97 96 95 97 97 94 91 92 92 95 92 82 70 94 97 92 97 99 100 100 99 99 98
89 93 94 94 94 95 96 96 96 97 99 99 100 98 97 96 95 95 95 95 92 90 93 93 96 95 93 91 71 82 98 98 99 98 100 99 98 100
95 96 96 96 97 98 98 98 98 98 99 99 98 97 98 97 96 94 95 95 94 93 91 89 91 96 96 96 97 96 99 99 98 98 98 99 99 100
97 97 98 99 99 100 100 99 100 97 97 98 98 98 98 98 95 96 97 92 92 95 93 92 97 99 97 88 87 92 98 98 100 99 98 99 93 89
99 99 100 100 100 100 100 100 99 99 98 98 98 98 98 99 97 97 97 96 95 97 99 93 87 93 95 97 95 95 96 97 95 98 100 100 98 97
100 100 100 100 100 100 100 100 100 100 100 99 98 99 100 97 99 99 100 99 98 99 96 92 88 89 91 98 94 95 92 96 98 96 97 99 99 100

GFSNE_925_rhum_045.txt.gz
RH
37 41 44 48 50 56 60 61 60 61 53 41 46 50 60 62 59 64 65 64 66 68 64 62 61 62 61 63 70 69 71 72 70 71 71 72 65 64
46 47 50 52 56 60 63 64 65 64 65 53 58 61 62 64 66 65 64 69 69 67 64 64 63 64 71 72 66 67 74 75 69 69 67 68 71 70
49 53 55 58 62 62 64 66 66 67 66 67 66 67 64 61 62 67 72 70 69 65 65 66 67 67 66 67 72 74 74 78 76 73 73 70 71 71
56 59 63 62 61 61 64 67 71 71 75 79 74 67 61 66 72 81 65 58 58 59 61 65 65 66 68 72 77 74 72 74 72 74 73 71 75 71
64 67 65 64 64 65 72 76 75 78 79 73 68 69 74 83 67 62 60 60 61 62 64 66 69 72 73 72 70 69 70 72 79 77 74 75 74 72
69 66 66 68 70 77 81 72 71 67 72 75 79 90 70 65 69 63 61 64 66 71 74 72 70 69 69 70 72 73 73 73 72 71 70 72 70 68
70 63 67 73 78 75 73 71 69 79 85 94 84 71 73 62 62 66 70 77 75 69 69 67 65 71 74 72 71 72 74 76 78 81 83 82 79 76
68 67 70 72 78 74 74 72 74 83 98 89 81 69 64 64 70 83 91 79 78 65 67 77 75 74 70 69 69 73 75 75 77 78 80 85 92 87
69 69 73 75 79 83 83 79 92 89 76 73 70 69 74 77 98 94 87 87 88 82 82 77 71 69 67 68 70 75 78 79 79 82 82 84 86 82
71 74 78 79 83 77 76 98 88 72 72 72 74 82 95 85 78 86 95 95 87 76 70 81 72 72 72 72 72 76 78 80 81 82 84 83 80 82
74 77 76 72 72 71 93 89 71 69 68 78 90 81 74 79 84 95 91 90 82 74 73 74 73 77 81 78 76 71 71 74 88 94 97 96 95 88
73 70 73 72 70 85 74 74 75 70 93 90 71 70 76 79 85 85 93 94 89 85 62 86 86 84 83 63 66 76 75 76 85 92 98 99 99 99
70 73 74 73 84 69 70 73 79 88 81 74 77 78 82 81 83 89 97 98 95 91 81 93 91 90 90 86 76 75 77 82 91 91 91 96 99 100
75 77 76 76 72 73 76 81 80 82 76 80 84 86 88 92 96 99 100 100 100 100 99 100 96 96 93 88 84 75 81 85 88 90 96 96 98 99
79 74 77 77 73 77 81 82 84 79 84 90 89 91 94 98 100 100 99 99 99 98 95 90 98 97 98 94 93 88 86 85 92 96 100 100 100 100
78 80 80 75 79 81 80 78 80 82 89 94 94 95 97 97 98 98 99 98 97 89 86 88 97 99 96 93 96 93 88 96 96 99 100 100 100 99
76 80 72 76 77 78 80 82 83 85 92 95 96 96 95 95 95 96 98 96 95 91 90 88 93 95 95 94 94 88 97 97 99 99 100 98 99 98
81 76 79 81 82 83 87 90 90 93 96 98 98 97 96 97 96 94 96 96 94 91 91 92 93 92 81 69 78 98 93 97 98 100 100 98 97 99
81 84 87 88 91 93 96 96 96 97 100 100 99 98 97 96 94 94 94 94 90 89 91 91 95 95 93 89 72 74 99 98 98 97 99 98 98 100
90 90 94 94 96 97 98 98 98 99 99 99 97 97 98 98 95 94 94 94 92 91 91 88 91 96 96 95 94 86 99 100 98 97 98 100 100 100
93 95 95 99 100 100 100 100 100 100 98 97 98 98 98 97 95 95 95 92 92 92 91 89 92 99 97 98 86 81 89 98 99 100 98 97 97 98
98 100 100 100 100 100 100 100 100 100 98 99 98 98 98 98 96 96 96 95 93 95 96 97 88 90 96 92 93 90 91 91 90 92 97 100 99 97
100 100 100 100 100 100 100 100 100 100 100 98 100 99 99 97 98 99 98 98 98 96 97 96 91 93 91 90 88 84 86 86 88 88 95 98 99 100

GFSNE_925_rhum_048.txt.gz
RH
36 40 41 41 44 44 45 45 44 46 39 31 29 33 40 46 48 51 52 52 57 63 64 62 63 66 69 66 70 71 83 71 76 78 71 69 66 66
39 42 42 43 44 46 48 48 47 46 47 38 37 43 47 50 50 51 51 56 59 60 58 60 64 67 67 69 72 73 78 75 72 72 71 71 70 69
44 45 47 48 48 44 43 45 47 47 47 51 49 50 54 50 50 54 58 59 53 47 52 60 63 67 69 72 70 70 71 72 76 78 79 76 70 72
47 49 48 46 46 46 47 48 51 54 54 59 60 60 52 54 60 60 49 47 51 51 55 62 65 66 69 72 71 73 72 75 75 81 79 73 75 73
51 52 52 49 48 48 52 57 57 60 70 74 64 60 58 70 59 54 55 51 52 54 56 60 63 66 69 68 67 68 69 70 70 71 70 73 74 76
54 57 55 52 53 56 59 56 57 61 55 58 64 71 80 58 58 52 53 56 58 62 62 63 61 62 61 62 66 70 72 73 73 73 73 73 75 75
52 52 51 56 69 74 68 69 63 67 73 80 89 72 67 54 50 56 62 65 70 63 63 60 57 65 68 64 64 65 66 69 72 77 80 82 86 87
50 50 52 56 60 66 68 68 78 88 95 92 81 68 52 53 60 66 83 80 73 63 64 70 66 66 63 62 61 64 69 72 76 78 80 82 82 81
53 54 54 57 62 62 66 66 70 88 75 66 61 57 62 64 82 95 82 84 84 78 76 72 65 63 62 62 63 69 72 76 80 80 82 86 84 83
56 58 60 60 59 63 65 85 88 63 55 58 60 65 77 92 86 79 88 88 83 72 67 76 68 67 66 68 70 74 76 78 76 76 80 90 96 96
55 57 61 60 62 66 81 94 61 56 54 59 73 82 74 71 76 90 91 86 80 72 72 69 66 74 79 78 72 63 65 70 78 77 79 83 92 98
56 56 56 63 65 79 81 66 64 56 67 91 68 61 64 67 73 76 90 94 88 84 62 80 86 82 82 63 66 76 75 73 76 78 78 83 88 99
59 55 57 61 68 69 70 68 65 76 87 70 63 66 70 72 75 82 91 98 94 91 80 91 91 90 91 88 76 76 79 79 81 83 81 82 84 95
63 62 64 70 70 72 72 73 79 81 69 67 74 79 81 87 91 94 98 99 100 100 99 100 96 96 93 88 82 73 77 84 85 88 93 98 98 99
73 69 70 70 71 68 67 78 78 67 71 81 86 87 89 94 96 96 94 97 98 99 99 100 100 98 97 94 91 88 84 85 93 92 97 100 100 100
69 71 66 65 62 65 64 66 68 71 78 90 92 92 92 93 94 95 96 94 95 91 88 91 92 98 96 93 94 92 90 95 96 99 100 100 100 100
74 65 58 56 61 62 66 70 71 75 85 89 95 94 92 92 93 94 95 95 93 90 89 89 90 94 97 98 96 90 89 94 98 99 99 98 99 100
74 61 58 65 67 70 76 79 84 88 90 95 96 95 95 94 94 93 94 94 93 88 87 88 89 90 82 74 70 86 94 92 96 99 99 98 96 99
66 67 72 73 75 80 86 91 93 94 98 98 96 97 96 95 93 94 93 92 88 88 86 86 91 94 93 89 70 72 98 97 98 95 99 98 98 99
74 75 77 78 81 88 93 96 96 98 98 98 97 97 97 97 95 93 92 92 91 88 87 86 88 92 96 95 95 87 85 100 99 97 97 98 97 97
76 78 80 84 90 95 97 99 98 98 97 98 98 98 98 97 95 93 93 89 88 89 89 85 91 93 100 99 93 80 82 84 94 100 100 98 96 84
80 85 87 91 97 98 100 100 99 99 98 98 98 98 98 98 96 96 94 94 90 90 92 88 91 95 96 92 89 88 83 83 84 84 99 99 99 98
89 91 95 99 100 100 100 100 100 100 99 98 99 98 98 97 97 97 97 96 92 95 87 84 85 88 88 85 85 84 84 84 84 80 87 98 98 99

GFSNE_925_rhum_051.txt.gz
RH
35 37 40 38 39 42 43 44 47 52 46 36 32 34 36 41 44 48 50 49 50 55 57 59 60 61 60 62 66 67 71 71 78 77 78 76 70 71
36 39 40 40 41 43 44 45 44 45 50 42 41 43 45 49 51 51 48 52 54 54 56 53 55 60 62 66 73 75 75 75 77 73 78 77 77 74
39 41 42 43 44 42 41 42 44 46 49 49 51 53 54 55 53 52 60 58 58 49 51 56 58 61 62 67 69 71 78 76 76 76 82 77 83 79
40 43 45 43 45 43 43 44 47 49 53 56 56 59 58 53 55 64 65 51 51 51 51 56 60 62 63 65 66 66 68 70 70 70 79 80 74 78
43 45 48 49 46 44 48 51 54 54 54 57 59 56 58 65 81 61 56 53 52 53 55 57 61 63 64 64 63 63 63 65 67 68 68 70 76 73
45 46 48 49 48 52 60 62 60 62 66 64 66 72 78 74 61 56 54 57 60 62 67 62 62 61 59 58 64 66 68 68 68 69 70 73 75 77
45 45 44 46 55 59 64 66 67 71 78 83 84 94 74 62 56 56 61 67 71 79 67 68 62 66 69 65 64 63 64 66 67 69 73 73 74 77
46 45 47 49 48 56 60 59 60 67 95 97 94 79 67 57 60 68 78 90 88 69 70 76 73 72 68 66 63 64 67 70 73 74 77 79 84 84
48 48 51 51 55 57 58 59 64 71 72 71 65 59 60 62 74 88 91 88 85 81 79 79 73 71 68 67 66 66 71 77 80 79 80 84 84 85
49 51 52 54 56 56 64 70 80 81 65 58 57 60 68 86 99 92 80 87 86 77 72 82 73 73 72 72 72 75 77 75 72 72 77 80 82 84
49 50 53 56 55 61 64 78 79 66 62 56 66 74 75 66 66 71 91 90 84 74 76 78 79 84 81 80 75 65 68 71 79 78 79 80 90 91
56 58 54 54 59 63 68 71 72 68 67 78 82 70 62 64 69 73 91 96 92 88 70 84 92 89 87 65 64 79 77 80 78 83 78 81 80 85
68 58 60 60 65 67 67 71 72 70 83 82 68 65 72 77 80 84 90 98 96 92 84 92 94 92 94 90 78 77 78 80 82 87 89 86 88 93
63 64 68 67 68 66 69 68 70 74 72 66 72 77 81 84 87 92 94 94 95 98 96 100 97 97 94 90 85 74 77 84 89 92 93 99 100 98
66 69 69 68 66 61 61 65 66 65 68 77 85 87 89 91 93 98 91 97 93 94 96 97 100 98 98 94 92 89 82 86 92 97 98 99 99 100
74 74 70 63 53 55 58 61 66 69 76 90 94 94 95 94 93 94 98 97 98 90 85 88 93 99 97 96 96 93 89 95 94 100 100 99 98 100
73 77 63 52 58 62 64 70 74 77 87 94 96 97 95 94 93 94 96 96 96 91 88 86 86 90 97 98 96 90 92 91 87 97 98 97 91 96
77 65 57 66 68 71 75 81 86 90 94 98 98 98 97 96 96 95 94 96 95 92 91 88 93 93 83 77 74 90 90 93 91 96 96 98 88 90
64 66 72 74 77 79 85 90 94 95 97 99 99 98 98 97 93 95 93 94 90 90 88 91 92 94 94 89 70 73 90 96 98 96 87 97 98 97
71 74 76 78 81 87 94 96 98 98 98 99 98 98 98 98 96 94 94 94 93 92 92 84 86 87 96 95 95 94 90 92 99 97 92 96 99 94
74 76 79 84 89 96 99 99 99 98 98 98 97 98 98 97 96 95 94 90 88 93 93 87 86 86 92 94 91 80 79 82 94 100 99 98 97 95
79 84 87 91 96 100 99 100 99 99 98 98 97 98 98 98 97 97 96 96 94 94 95 98 83 84 90 90 92 83 84 84 84 86 92 100 99 98
88 91 94 98 100 100 100 99 100 100 98 97 98 97 97 97 97 98 98 97 96 98 94 90 82 86 85 86 82 83 84 89 90 91 89 86 99 99

GFSNE_925_rhum_054.txt.gz
RH
34 36 38 39 39 40 42 44 52 63 56 45 42 40 42 48 50 54 54 54 54 57 58 56 59 57 57 59 64 70 77 80 82 84 81 75 76 74
35 36 39 42 42 43 44 44 43 49 60 47 50 49 53 54 56 58 55 56 58 62 59 59 57 60 61 66 70 71 74 77 80 79 80 80 82 77
36 39 41 44 44 44 44 44 43 46 60 54 55 57 58 58 58 56 58 64 71 59 55 58 58 60 63 66 66 66 70 75 74 74 80 79 83 84
39 42 44 46 47 48 46 46 50 52 57 65 63 63 64 60 61 67 79 66 60 58 56 58 61 63 66 68 65 68 70 68 69 71 72 72 76 75
43 44 45 48 50 51 49 55 59 64 64 68 73 69 69 74 81 79 68 60 57 58 60 60 64 71 68 67 66 65 68 69 67 69 70 70 70 70
45 45 46 46 47 48 54 59 65 67 71 74 76 84 87 87 81 72 65 62 64 69 71 78 72 69 68 67 73 73 72 72 69 68 70 73 76 78
46 46 46 45 51 54 55 60 63 65 70 82 91 80 79 81 77 64 67 66 74 80 86 74 73 76 79 78 76 72 73 72 70 72 76 77 78 81
50 49 48 49 51 55 58 60 60 62 70 76 87 91 88 64 65 69 74 83 88 76 78 81 78 80 79 76 74 71 73 74 72 75 78 81 84 81
49 49 50 52 54 54 57 59 62 68 69 74 79 68 66 67 72 85 95 97 89 84 87 86 77 77 76 75 76 77 76 81 81 80 77 78 81 83
50 51 51 53 56 58 57 64 66 73 78 71 69 67 69 74 90 92 85 83 88 83 79 89 79 79 80 82 80 80 80 81 73 76 82 83 84 83
57 57 61 61 57 60 64 66 75 79 74 70 71 76 77 74 70 73 87 92 86 78 79 82 81 91 87 85 70 70 72 74 83 83 84 84 86 84
68 69 67 62 64 64 66 72 76 75 72 77 84 74 70 68 75 80 88 97 94 88 70 89 91 92 86 69 67 76 75 82 82 84 84 89 92 90
70 67 65 67 69 69 67 68 70 68 75 79 70 71 74 79 83 85 90 98 96 93 84 94 94 93 94 91 79 78 80 77 83 85 90 93 92 92
70 68 70 74 71 69 67 63 66 68 66 69 74 82 89 92 92 94 96 99 98 99 97 100 97 98 95 90 86 75 79 84 89 90 92 90 96 97
73 75 76 75 73 63 58 63 66 66 72 81 93 94 94 94 98 100 95 97 97 95 95 95 98 98 99 94 92 90 83 86 90 95 89 98 100 96
81 78 80 70 60 60 66 67 71 76 82 88 92 96 99 99 98 98 99 97 98 92 86 87 91 98 97 96 97 93 90 94 90 92 100 100 94 94
75 78 69 63 72 74 76 78 81 86 93 95 99 98 97 98 97 96 98 98 96 92 90 87 86 89 96 100 96 90 92 94 92 92 98 95 91 91
70 67 70 78 80 82 84 86 91 94 97 99 99 99 98 98 97 97 97 97 96 92 93 89 92 96 87 79 74 93 94 94 92 91 97 98 91 84
69 75 81 83 85 87 90 95 98 99 100 100 100 99 99 98 95 98 96 96 93 90 89 92 97 96 94 90 70 72 93 95 94 95 90 93 96 91
75 78 82 85 89 93 98 99 100 100 100 100 100 98 99 98 97 95 95 96 95 93 94 89 92 97 96 95 94 88 84 86 99 96 91 90 91 91
79 84 88 92 95 98 100 100 100 100 98 98 98 98 98 98 96 96 96 92 92 94 93 89 89 93 90 94 94 78 77 78 83 97 99 97 91 92
92 94 96 98 99 100 100 100 100 100 99 99 99 98 98 97 97 97 97 96 95 96 95 98 90 92 95 94 92 89 85 83 85 87 86 93 99 97
96 100 100 100 100 100 100 100 100 100 100 99 99 97 97 97 98 99 100 99 99 98 95 93 92 88 90 92 91 95 96 92 91 89 87 76 77 88

GFSNE_925_rhum_057.txt.gz
RH
29 33 35 38 39 40 42 44 52 73 58 49 46 44 50 53 56 60 59 58 62 63 65 65 64 62 62 61 74 72 79 83 77 78 76 76 75 76
33 35 36 40 42 43 44 45 45 52 66 46 53 54 59 60 58 60 57 64 65 65 68 65 63 63 66 67 66 75 75 76 81 81 81 78 78 76
34 37 40 42 44 45 46 47 46 48 65 60 61 64 64 63 65 65 68 72 72 70 64 63 62 64 64 66 67 73 75 75 79 79 79 81 83 80
37 40 42 44 46 48 50 50 50 53 61 68 70 70 73 72 74 77 79 84 74 68 65 63 66 68 70 72 74 70 70 71 72 70 68 66 73 80
44 45 45 47 47 48 50 50 53 58 63 68 75 75 78 82 86 85 90 79 70 66 63 66 72 78 77 73 72 73 75 74 75 73 71 72 73 76
45 45 46 48 47 48 53 56 58 62 66 71 80 85 84 73 77 89 80 68 68 68 72 79 80 76 74 76 78 80 81 79 77 77 79 82 84 80
38 44 49 49 54 55 57 58 61 63 65 74 89 81 78 79 81 72 73 73 72 78 78 80 78 81 83 81 80 80 81 77 75 78 82 84 83 84
48 49 49 49 51 57 57 59 61 62 69 79 84 82 80 76 74 75 78 82 85 75 82 85 82 83 81 80 79 78 78 81 81 81 84 83 87 84
51 52 53 55 56 58 60 63 61 68 71 72 83 84 82 76 74 86 97 99 91 88 88 87 80 81 79 78 78 82 84 84 83 81 82 80 82 83
55 60 61 64 64 66 64 66 67 68 74 80 80 76 76 87 97 90 87 89 88 84 80 87 79 80 80 82 83 84 84 82 79 78 82 86 87 88
62 67 73 71 68 67 67 69 74 77 72 74 74 80 80 76 75 78 88 92 87 80 80 84 82 88 87 85 67 69 75 75 80 84 87 86 90 90
68 70 69 71 70 70 70 74 76 72 67 77 81 69 67 68 80 82 86 96 94 89 70 86 92 94 87 69 68 75 73 82 85 84 85 88 90 92
74 74 73 77 74 72 70 71 68 65 77 68 67 72 76 82 88 91 94 100 97 94 85 94 94 94 95 90 82 80 80 74 81 86 89 92 96 96
79 78 79 80 76 74 69 65 67 72 67 74 82 87 92 95 92 96 94 97 99 100 98 100 97 98 95 90 87 75 79 84 90 90 92 92 95 97
81 82 82 81 72 68 67 72 74 72 80 88 95 94 95 99 99 100 97 92 94 92 92 90 98 100 100 95 92 90 86 85 89 93 86 97 97 97
79 78 79 69 70 74 76 77 78 83 89 95 98 98 100 100 100 100 100 100 100 94 85 90 90 92 98 98 98 92 88 91 88 94 95 94 91 96
73 69 65 74 81 83 83 84 86 90 97 99 100 99 99 99 98 98 100 100 98 92 92 89 89 93 96 100 98 93 93 93 91 94 96 96 90 90
72 73 81 85 87 88 89 92 95 98 100 100 100 100 99 98 99 98 98 98 97 93 94 93 95 96 88 82 86 96 90 86 88 92 93 97 92 85
77 81 88 89 91 94 97 100 100 100 100 100 100 100 99 98 95 96 96 97 94 92 92 94 98 96 94 90 70 72 90 95 92 94 91 94 95 88
85 89 92 94 97 100 100 100 100 100 100 100 100 98 99 99 97 95 95 96 95 94 94 91 93 96 96 94 94 86 87 94 98 95 93 90 89 90
93 96 98 100 100 100 100 100 100 100 99 99 100 100 99 98 96 97 97 93 93 95 93 90 88 93 96 99 94 80 78 80 86 97 98 98 91 87
97 99 100 100 100 100 99 98 100 100 100 100 100 99 99 100 98 98 98 97 96 97 97 97 97 95 98 97 92 88 87 86 86 87 88 93 98 96
97 100 100 100 100 100 100 100 100 100 100 98 99 100 100 100 100 100 100 100 99 98 98 95 92 91 91 93 92 95 93 87 86 87 86 71 78 82

GFSNE_925_rhum_060.txt.gz
RH
26 27 31 34 37 39 41 44 50 67 68 46 43 43 49 52 56 64 63 60 70 70 71 69 69 69 66 64 74 74 76 75 75 84 74 74 77 78
31 32 33 36 40 41 43 45 48 55 73 50 48 51 53 58 61 68 64 74 70 74 74 73 71 70 68 67 66 71 76 77 78 79 78 75 73 76
32 34 37 40 42 44 45 47 49 50 69 58 58 58 63 64 68 68 69 68 70 78 79 74 72 70 69 69 70 72 74 80 78 78 76 81 76 76
34 38 41 43 45 47 48 49 51 50 57 70 68 68 71 70 75 77 74 76 82 82 78 72 70 71 73 74 74 76 72 72 76 73 69 69 76 81
42 45 46 47 48 48 49 49 50 54 58 66 74 73 73 76 77 77 79 84 76 76 69 71 71 78 80 76 75 75 76 76 75 75 74 77 79 81
44 45 44 47 49 49 55 57 59 61 63 68 76 79 81 81 77 81 79 73 75 75 75 79 81 80 76 78 81 82 83 82 81 78 77 80 86 82
33 40 46 49 59 60 58 60 60 61 64 70 84 90 92 80 80 80 81 80 79 82 78 80 84 83 82 84 83 82 85 83 80 79 78 83 84 88
38 44 48 51 55 67 68 65 63 66 70 77 91 89 85 84 82 86 85 87 87 76 85 87 83 84 84 81 84 82 80 81 81 88 84 86 88 89
46 53 56 58 61 64 67 71 68 70 69 73 82 86 88 84 82 90 96 99 91 88 91 87 81 83 80 78 77 82 84 85 83 82 83 84 86 87
51 60 67 70 71 75 71 69 70 74 76 77 80 78 78 90 98 96 88 89 90 86 81 86 79 82 81 80 80 84 85 84 81 78 78 81 85 87
63 69 75 77 75 73 72 74 78 76 73 71 76 82 83 77 73 79 90 94 88 82 80 86 84 84 84 86 69 63 79 76 77 81 84 88 87 88
72 72 73 78 77 76 73 74 79 71 67 80 79 67 63 67 82 84 89 97 95 90 69 84 90 94 85 69 68 68 77 78 86 84 82 85 89 90
77 76 73 84 81 75 72 72 71 68 77 74 67 74 76 81 88 91 95 100 98 94 85 96 94 95 94 91 82 81 82 77 79 82 89 91 94 96
81 79 83 85 79 74 72 74 74 79 72 79 88 91 95 94 89 92 92 98 100 100 98 100 96 99 95 91 86 77 80 85 90 92 94 95 96 94
82 84 87 80 73 73 76 79 82 74 84 93 100 98 99 98 94 100 100 99 99 87 83 90 100 98 100 94 92 90 88 84 88 90 89 91 98 97
78 75 73 67 70 76 76 74 80 86 93 96 100 100 99 100 100 99 100 100 100 95 81 88 94 96 98 98 98 93 89 91 87 93 97 98 96 99
76 66 62 72 77 81 84 86 88 92 98 100 100 100 100 100 100 98 100 100 99 94 93 87 88 92 97 100 99 95 94 92 93 96 97 96 92 91
76 76 84 87 92 93 94 96 96 98 100 100 100 100 100 100 99 99 98 99 97 94 95 94 96 98 91 86 92 100 96 95 90 91 95 97 92 88
79 87 92 95 96 99 100 100 100 99 99 100 100 100 100 99 97 100 98 97 94 93 93 93 99 96 94 91 70 72 89 96 95 93 92 94 95 90
89 94 96 98 100 100 100 100 100 100 100 100 100 99 100 99 99 97 96 96 95 94 94 91 93 96 95 92 93 86 88 95 98 95 93 91 92 90
90 96 97 100 100 100 100 100 100 100 100 100 99 100 98 98 97 97 97 94 93 94 93 90 88 94 98 99 94 80 76 80 93 99 96 97 91 87
94 99 98 100 100 100 100 100 100 100 100 100 98 98 98 99 98 98 98 98 95 95 95 95 96 98 99 97 92 88 86 84 84 90 96 99 98 96
94 98 100 100 99 99 99 100 100 100 100 100 98 97 100 99 99 100 100 99 98 97 97 95 93 91 90 95 96 95 95 94 92 93 89 79 80 88

GFSNE_925_rhum_063.txt.gz
RH
22 24 27 32 33 34 36 40 45 58 65 44 38 40 41 47 54 62 67 62 76 76 76 76 74 73 72 70 69 67 74 74 74 78 73 76 73 75
26 28 31 33 36 38 41 43 46 51 70 49 45 47 48 57 61 66 66 66 68 76 78 78 78 76 74 71 75 75 76 76 76 78 77 81 82 78
32 32 34 38 40 42 44 46 48 52 70 58 53 53 58 62 63 65 64 59 65 77 80 81 80 77 73 72 73 74 76 80 78 79 79 80 80 79
35 37 40 41 42 46 48 49 51 52 59 67 62 62 65 64 68 70 67 68 74 72 81 81 76 76 77 77 76 75 85 83 79 79 76 75 72 69
49 45 43 45 46 48 49 49 50 55 58 66 75 71 72 71 74 79 78 80 76 75 74 76 77 80 82 79 75 73 76 76 76 75 76 75 72 72
46 43 42 43 47 49 55 59 59 62 63 67 76 79 79 80 86 88 83 79 81 77 79 83 83 84 80 77 82 84 85 85 82 79 79 77 77 81
35 39 42 45 56 66 65 67 68 67 66 70 84 85 90 88 87 84 88 87 88 83 74 78 77 82 82 85 82 83 87 89 85 79 79 82 85 86
32 36 42 48 50 59 70 70 70 71 72 77 82 95 91 83 84 90 91 94 87 76 80 86 85 86 76 76 79 86 84 82 82 80 82 83 87 85
40 44 49 57 61 63 69 77 74 75 76 79 86 84 86 83 82 93 98 100 94 87 90 90 85 85 68 77 78 82 83 85 85 84 78 81 86 85
51 61 66 66 69 79 77 73 77 78 74 78 80 78 77 86 95 89 87 86 90 89 82 86 77 81 79 78 79 81 86 87 86 82 79 76 77 77
64 70 74 75 75 78 76 81 76 76 72 72 78 84 85 78 76 83 93 96 88 82 81 85 84 83 84 83 69 58 81 81 76 77 81 82 85 82
75 68 64 82 82 79 77 75 77 71 70 81 81 70 63 67 81 86 90 99 95 89 70 85 89 94 87 66 69 66 71 74 85 87 85 83 83 84
75 74 75 89 83 77 76 74 76 74 81 80 70 73 74 77 85 89 94 100 99 95 86 96 94 96 96 92 83 81 81 80 77 82 88 90 91 92
82 82 87 88 81 75 72 77 79 83 76 78 89 92 94 93 88 88 89 92 99 100 91 100 96 98 95 91 86 77 79 84 88 91 89 93 97 96
82 87 87 77 73 68 73 81 87 76 84 94 100 99 99 96 91 88 88 93 95 92 88 86 98 98 99 94 92 90 90 84 88 93 92 95 96 96
79 78 68 65 72 74 70 73 80 88 97 98 99 100 100 97 98 96 100 98 100 95 82 87 94 97 98 98 99 93 91 94 87 94 96 98 98 100
81 64 63 70 73 78 83 85 89 93 97 98 100 100 100 100 100 96 99 100 99 95 94 87 85 91 97 100 98 95 96 97 95 97 97 96 93 94
76 75 82 85 90 92 95 95 93 96 96 100 100 100 100 100 100 99 99 100 98 95 96 94 96 98 91 84 94 100 99 98 97 97 96 97 92 86
77 86 91 93 96 97 98 100 100 96 99 100 100 99 99 99 99 100 99 99 95 94 93 93 98 97 94 90 70 72 94 96 96 95 93 93 93 88
84 92 95 97 98 100 100 100 99 98 100 100 100 99 98 100 100 98 97 97 96 93 94 89 92 97 96 93 94 86 86 97 99 95 94 92 93 93
87 93 96 98 98 100 100 100 100 100 100 100 100 100 98 100 98 99 99 96 94 95 93 90 89 95 98 99 95 81 78 83 97 99 97 97 92 89
89 94 96 97 98 99 99 99 99 98 99 100 100 98 98 100 99 99 99 98 95 95 96 98 96 98 98 97 93 91 90 88 88 93 98 99 98 96
85 90 94 96 97 97 98 98 100 98 99 100 98 97 100 99 100 100 100 100 98 97 96 95 93 91 93 97 96 94 94 92 92 94 90 84 91 95

GFSNE_925_rhum_066.txt.gz
RH
26 25 23 24 29 32 34 32 36 48 55 41 34 36 37 43 47 57 58 62 77 73 72 76 76 75 74 71 70 68 74 76 79 71 78 77 78 75
26 28 32 34 35 36 39 40 40 43 59 42 40 42 44 49 53 60 63 66 68 74 76 78 78 76 73 75 77 81 80 79 78 80 78 81 82 82
33 36 37 37 38 39 41 44 47 50 66 57 53 47 53 56 59 63 67 70 64 65 77 78 79 76 75 73 74 74 80 80 84 80 85 82 82 76
43 42 44 46 47 47 47 48 50 52 60 68 60 60 62 62 66 71 73 69 68 63 83 81 79 79 80 78 78 79 84 89 88 84 80 77 78 80
46 54 69 68 66 54 48 48 48 53 59 67 73 71 70 71 76 81 78 77 76 72 75 82 82 84 85 80 77 76 77 76 76 76 76 76 74 72
73 78 73 52 41 46 54 61 63 65 67 70 72 77 80 80 84 89 90 81 83 79 66 78 84 80 80 78 82 85 85 85 84 81 78 78 78 79
63 61 53 48 60 75 72 73 71 71 71 72 83 88 88 82 90 84 90 90 92 85 75 77 75 81 78 80 78 81 86 89 87 82 81 84 88 83
47 40 43 47 45 48 54 73 75 76 77 82 86 96 92 86 86 88 91 96 87 79 80 88 83 84 75 74 79 86 85 84 83 81 82 84 86 84
38 44 49 53 53 52 62 78 78 81 82 83 85 84 88 83 82 95 99 100 93 87 90 90 85 87 76 69 78 82 82 85 84 83 83 80 82 85
53 58 61 60 58 80 82 77 82 83 75 79 82 79 80 87 92 88 85 89 93 90 86 91 79 80 77 75 79 82 81 84 85 82 77 78 82 87
65 67 65 71 74 83 78 82 80 76 69 70 81 88 87 81 82 90 93 99 91 85 85 88 86 82 84 82 65 58 77 77 75 76 79 82 82 80
72 66 68 85 85 80 77 78 78 72 73 85 84 70 63 67 72 84 93 100 97 90 72 87 88 94 91 64 66 67 73 71 82 85 85 84 84 82
77 80 81 92 82 77 76 74 74 77 85 83 71 71 70 74 76 80 87 100 100 96 87 96 94 96 96 92 84 81 80 77 74 80 86 89 91 90
83 82 87 86 78 74 74 80 81 87 77 78 86 87 90 87 81 86 85 86 95 100 88 100 97 99 96 91 86 78 79 85 89 91 90 88 93 95
81 87 86 75 76 63 77 86 89 78 85 94 97 96 94 91 88 84 82 85 86 84 82 85 98 100 100 95 92 92 92 84 88 93 88 87 85 93
80 82 68 63 66 76 72 77 81 88 99 96 96 96 94 94 93 93 98 94 100 85 84 85 89 95 98 99 100 94 90 94 85 90 97 100 100 98
83 62 62 72 75 79 82 84 86 89 94 95 99 100 98 97 96 95 99 100 100 96 95 82 86 94 98 100 96 93 95 96 95 98 100 98 95 95
71 75 81 86 89 93 94 92 90 93 94 99 99 100 100 100 100 99 99 100 100 96 97 94 96 98 90 84 91 100 98 99 97 98 99 98 92 88
74 86 91 93 94 95 96 98 97 94 96 97 100 100 100 98 100 100 100 100 97 94 93 95 98 97 93 89 70 75 98 97 98 97 95 96 95 90
81 90 93 95 97 98 98 98 97 95 97 97 99 98 99 99 99 100 100 98 97 95 95 90 91 97 96 95 94 87 92 98 98 96 95 93 93 93
80 86 90 95 98 98 97 96 97 98 100 98 98 100 97 98 98 99 99 97 95 95 94 89 87 97 99 100 94 80 79 83 95 99 98 98 92 89
79 83 84 91 96 98 97 97 96 96 96 98 99 98 97 98 100 100 99 98 97 98 97 97 93 96 99 98 93 90 88 85 82 86 93 98 99 97
74 79 78 80 84 96 97 97 99 97 97 100 100 96 96 100 100 100 100 100 100 98 95 94 90 89 89 95 96 94 92 88 87 85 84 76 79 80

GFSNE_925_rhum_069.txt.gz
RH
58 51 47 31 28 28 39 42 44 48 39 41 40 32 34 37 44 54 63 65 77 78 77 76 77 76 74 73 73 69 71 70 77 75 80 82 84 81
42 30 32 36 41 42 39 37 36 37 40 40 36 36 42 45 48 59 65 65 74 77 77 78 78 77 75 73 71 71 78 82 77 82 78 83 81 83
31 34 40 43 48 49 47 49 54 59 82 56 48 44 46 49 56 63 66 73 74 76 76 78 83 79 77 76 75 74 74 78 82 84 84 84 84 82
44 46 54 62 83 84 81 66 59 56 59 59 60 61 62 59 68 72 76 73 73 71 80 86 82 83 83 81 78 82 84 86 85 82 80 80 80 80
68 76 77 84 94 88 79 60 54 53 65 72 70 74 75 75 77 80 85 87 83 80 80 81 83 86 87 82 79 77 78 77 78 78 76 74 76 76
75 84 87 96 92 91 78 76 87 90 90 80 75 80 82 81 88 87 73 69 73 78 80 82 85 82 81 82 84 87 86 86 85 83 81 78 77 76
90 98 89 77 85 93 95 92 89 81 77 87 83 80 83 79 75 73 75 75 78 79 76 75 73 75 76 78 79 83 86 90 88 83 82 85 88 91
98 64 52 53 53 53 89 80 76 78 84 89 90 85 76 75 75 77 82 84 79 71 76 78 76 76 74 75 76 82 84 83 85 81 82 85 90 89
45 48 53 59 57 55 58 73 76 83 87 85 81 77 77 74 83 98 91 90 88 83 83 82 75 75 73 73 77 80 83 85 86 84 81 79 83 91
55 62 71 57 55 81 82 81 83 84 77 82 80 79 84 89 89 89 87 90 86 80 78 80 70 70 72 73 77 82 82 82 81 80 78 76 80 83
86 81 76 71 79 82 81 84 82 78 68 72 86 90 90 84 85 90 93 90 90 76 77 78 74 75 77 79 72 62 77 76 75 77 80 82 82 80
68 64 67 88 84 80 79 81 80 72 77 88 85 67 63 66 71 90 98 100 97 85 72 89 80 84 79 67 71 73 76 76 81 84 85 84 86 88
79 83 82 92 81 77 76 76 76 77 88 81 74 78 80 84 86 92 98 100 100 97 87 96 93 93 94 87 79 77 79 79 79 80 83 88 91 92
85 85 88 81 75 78 77 83 84 90 76 82 88 90 93 94 80 80 80 84 95 99 86 99 98 99 96 91 84 77 80 85 89 91 90 93 95 95
84 88 79 73 72 58 79 92 89 80 89 96 96 97 100 89 82 81 83 83 87 85 82 85 95 100 100 95 92 91 92 86 90 94 98 97 95 95
79 77 60 62 59 67 75 80 83 91 99 99 100 100 97 97 97 95 100 95 100 87 86 84 89 95 99 100 100 95 92 94 87 93 96 97 98 99
82 53 63 75 84 86 86 87 90 95 100 100 100 100 100 100 98 98 100 100 100 98 96 86 92 98 100 100 100 95 94 95 93 95 99 98 95 96
63 81 86 93 94 96 96 96 96 97 100 100 100 100 100 100 100 100 100 100 100 99 97 94 96 99 89 85 88 100 98 97 96 98 100 98 92 89
73 86 96 99 100 100 100 100 100 96 94 96 99 100 100 100 100 100 100 100 98 96 94 97 98 96 93 88 70 77 99 95 96 94 94 94 95 92
74 85 92 94 98 100 99 100 98 96 98 98 100 100 98 100 100 100 99 98 97 94 94 91 93 96 96 94 94 89 92 98 98 97 94 92 93 93
70 78 83 86 91 94 97 96 97 97 100 100 96 98 96 100 100 100 99 96 95 95 93 91 89 96 99 100 93 80 79 82 90 98 98 98 93 89
72 73 76 79 81 81 90 98 98 96 96 98 98 100 97 98 100 100 99 98 96 96 97 96 95 92 94 92 90 88 87 86 85 89 91 98 98 95
72 70 69 70 72 73 86 99 99 97 96 98 100 100 99 100 97 100 100 99 100 98 95 93 91 88 88 88 89 88 88 87 86 87 84 85 92 90

GFSNE_925_rhum_072.txt.gz
RH
85 71 66 51 54 72 60 43 57 70 57 44 48 44 48 47 46 48 46 51 64 74 78 78 79 79 78 77 74 73 71 69 67 69 78 74 80 82
88 66 53 46 42 49 59 60 58 56 73 53 55 63 56 62 56 56 56 62 69 71 78 81 78 79 78 77 76 74 73 72 69 72 71 79 78 82
75 70 70 56 54 56 55 54 61 78 96 98 99 80 66 62 57 55 56 59 58 62 67 72 80 83 82 81 80 79 76 74 73 78 80 79 78 77
61 62 68 67 62 68 85 95 99 99 97 96 68 56 57 64 69 71 64 64 63 66 72 82 86 84 85 85 84 81 79 76 75 73 73 74 71 72
50 54 65 77 92 97 98 97 98 98 90 73 70 72 72 71 75 68 67 66 62 59 63 70 75 80 83 86 83 82 82 81 80 80 79 76 74 72
69 76 85 92 95 96 97 92 88 94 90 80 70 68 71 65 70 67 58 55 55 61 66 70 72 74 75 76 79 82 85 85 86 84 83 81 78 79
86 90 96 96 94 65 94 91 87 81 83 84 72 65 66 60 58 56 57 59 64 67 65 62 60 62 64 64 67 69 72 79 84 84 81 79 76 82
98 96 67 55 82 98 98 95 94 87 81 78 81 71 60 58 56 58 69 74 75 69 64 68 64 63 62 62 63 71 78 82 84 84 81 82 87 89
48 55 79 82 59 52 55 84 84 84 85 81 72 64 60 57 78 87 81 87 86 74 71 69 64 63 59 58 62 68 75 82 84 85 83 80 77 83
72 78 79 84 79 82 78 82 88 83 78 74 68 63 65 71 77 80 77 78 76 68 67 70 64 63 61 62 66 71 75 77 79 82 82 79 77 77
72 66 78 74 77 87 78 90 74 68 64 69 80 88 90 88 84 83 84 80 80 74 71 70 65 67 71 75 70 66 72 75 78 80 81 83 84 81
70 72 75 86 85 81 75 67 68 58 68 84 70 65 65 69 82 85 88 94 95 84 65 85 79 80 82 69 70 72 74 72 76 78 82 84 85 85
68 69 74 88 81 77 78 68 66 74 70 71 64 66 70 74 78 82 90 99 99 96 87 94 93 91 92 88 78 76 77 80 76 77 78 83 86 89
70 73 76 80 77 79 77 82 86 88 69 68 74 78 83 90 96 100 98 100 100 100 85 100 100 99 98 92 85 77 79 83 89 93 88 84 86 88
74 79 72 73 71 67 78 89 89 72 75 83 84 87 94 100 98 100 100 100 100 100 95 90 100 100 100 97 93 90 90 88 92 96 97 94 92 92
82 66 55 57 61 71 74 77 77 79 85 89 90 95 99 100 100 100 100 100 100 98 91 93 98 100 100 100 99 94 93 95 90 95 96 98 97 97
78 55 56 62 66 71 75 78 80 81 90 95 100 100 99 100 100 100 100 99 98 96 97 94 97 98 98 98 100 96 96 96 95 96 98 97 93 94
56 57 60 70 77 80 81 83 89 93 97 100 100 100 100 100 100 100 98 97 94 94 95 94 94 95 90 88 92 99 96 96 94 96 100 99 94 91
59 64 74 82 88 91 93 98 100 100 100 100 100 100 100 100 100 98 97 97 91 90 91 93 97 94 93 90 72 74 90 96 95 94 94 93 94 91
72 75 82 86 90 96 100 100 100 100 100 100 100 100 100 100 100 99 98 96 94 90 90 88 89 92 96 94 94 87 88 91 97 96 93 93 94 92
73 76 80 88 93 98 100 100 100 100 100 100 100 100 100 100 100 99 98 92 91 91 91 86 86 91 97 100 95 79 76 81 90 98 98 98 93 89
76 79 80 87 95 99 100 100 100 100 100 100 100 100 100 100 100 100 98 96 95 95 94 95 98 94 98 96 90 83 82 81 83 86 86 92 98 94
85 85 85 90 95 99 100 100 100 100 100 100 100 100 100 100 100 100 98 98 97 98 96 91 88 88 91 92 96 93 88 84 82 83 82 82 94 98

GFSNE_925_rhum_075.txt.gz
RH
97 90 82 68 60 63 71 74 86 98 90 75 68 61 62 62 50 51 54 56 56 60 69 75 80 82 82 80 79 78 77 75 73 72 70 67 74 77
96 91 83 86 93 94 89 73 67 76 87 68 69 67 61 65 82 94 79 51 62 64 67 69 74 76 78 79 80 79 78 76 75 72 70 70 72 75
99 97 87 76 78 85 90 92 92 89 89 90 83 94 94 80 49 56 59 57 58 60 62 68 74 77 83 84 82 81 80 78 76 74 70 75 78 80
87 85 88 88 86 90 93 92 95 96 96 97 92 72 60 63 66 69 58 68 60 62 66 65 71 75 80 82 82 82 83 81 80 78 77 74 70 72
84 79 77 77 82 93 95 97 94 93 91 91 71 72 71 66 65 68 67 66 64 56 53 57 65 72 78 82 83 85 85 85 85 84 83 80 78 76
83 82 81 84 91 94 94 95 86 82 89 82 72 71 72 72 67 66 62 55 53 55 61 67 69 67 67 67 70 73 74 77 80 82 81 80 80 79
88 94 96 98 98 89 80 88 87 79 74 81 81 75 71 65 59 56 56 56 64 69 69 68 62 66 66 65 64 65 67 72 77 80 78 77 77 81
100 99 93 84 92 94 92 87 90 87 94 90 86 78 70 58 56 56 70 78 81 74 74 76 72 68 65 64 63 64 67 70 75 80 81 79 77 79
96 89 85 82 57 48 46 71 88 87 82 82 79 71 65 59 63 70 85 88 88 83 76 75 71 69 66 63 63 66 70 73 78 80 81 81 80 78
87 89 82 74 71 77 78 80 84 82 78 76 73 70 64 63 72 78 79 79 78 77 72 74 71 71 68 67 69 72 77 78 77 80 83 83 82 80
54 63 72 68 76 85 81 80 75 66 61 60 65 78 86 88 86 86 88 88 86 84 84 81 73 74 78 77 69 74 72 71 74 81 80 81 80 82
65 69 68 80 85 82 79 69 63 62 58 73 71 69 63 64 70 78 84 90 90 92 69 89 88 89 88 68 72 70 74 77 79 78 82 80 80 80
63 64 69 83 80 76 78 76 66 72 78 71 64 63 68 72 76 80 84 90 94 94 92 97 97 96 94 92 83 83 80 79 85 86 86 88 89 86
64 67 71 79 74 77 78 72 85 89 74 66 71 78 83 90 96 99 100 100 100 99 97 100 99 100 98 93 90 83 85 91 91 96 93 93 92 94
70 72 68 68 68 65 64 85 86 72 71 80 86 87 92 98 100 100 99 99 99 99 100 96 100 100 100 98 95 96 94 91 94 91 89 97 97 94
73 72 58 59 65 68 72 72 73 76 82 88 88 94 99 99 99 100 100 100 100 98 97 97 99 96 98 100 100 95 94 97 92 97 99 99 99 100
78 51 49 53 59 65 70 73 75 77 85 91 96 98 99 99 100 100 99 95 99 91 91 94 96 97 98 98 99 96 95 94 94 95 99 99 98 96
62 48 52 61 71 78 80 84 89 92 94 99 100 100 100 100 100 100 95 98 94 89 92 88 88 95 94 90 85 99 99 100 98 96 97 99 94 90
55 52 65 72 82 87 89 93 97 99 99 100 100 100 100 100 100 99 100 99 93 88 90 91 96 97 94 90 73 73 92 97 95 94 94 96 97 93
61 69 72 78 84 88 94 99 100 100 100 100 100 100 99 99 99 100 100 97 93 94 95 88 86 89 97 94 94 92 93 95 100 98 94 92 92 93
68 71 72 75 85 92 96 99 100 100 100 100 100 98 97 97 98 100 100 93 88 92 93 88 86 89 94 100 96 82 76 79 92 100 99 99 94 90
71 73 76 78 84 93 95 98 100 100 100 100 100 99 97 98 99 100 100 98 96 96 96 97 97 98 93 93 92 90 87 83 83 87 86 93 98 96
78 82 83 85 89 92 94 95 97 100 100 100 100 99 99 100 100 100 100 100 99 98 97 97 94 91 92 98 91 85 82 85 84 84 83 83 92 98

GFSNE_925_rhum_078.txt.gz
RH
99 96 94 82 74 72 62 64 80 98 98 99 94 91 93 90 86 80 64 51 47 73 81 72 76 79 80 81 81 81 80 79 77 76 74 71 70 73
100 100 97 90 84 81 81 85 90 93 97 97 97 96 96 91 81 64 69 79 53 75 65 66 69 72 76 80 81 81 81 80 78 74 72 72 71 72
100 100 98 96 94 93 92 92 93 98 99 99 96 90 85 82 89 64 57 57 56 60 65 68 71 75 76 80 83 82 82 81 79 76 75 74 76 77
100 100 98 92 94 97 99 98 93 92 90 95 93 93 74 58 60 58 54 62 64 64 67 68 64 64 72 77 81 83 84 83 80 79 81 80 78 75
96 96 97 96 95 94 92 92 99 94 91 87 71 66 65 64 63 65 65 65 63 61 56 57 64 72 76 78 77 77 77 78 77 77 79 79 76 77
88 86 87 86 90 96 98 99 94 72 66 74 76 72 71 70 70 68 68 58 55 55 58 66 74 74 73 73 73 75 74 73 74 75 76 77 76 75
88 91 98 100 100 95 83 78 81 80 77 78 78 82 78 66 66 59 56 60 56 54 70 69 66 62 59 58 66 70 73 72 73 75 76 74 77 77
98 98 98 98 99 98 94 87 88 86 82 90 85 82 79 66 60 61 65 65 81 72 74 80 73 72 68 67 70 73 72 73 75 76 75 77 77 77
99 98 92 65 64 48 65 70 74 89 83 82 85 83 76 66 63 62 74 81 88 83 83 80 77 79 61 63 70 75 75 79 82 84 82 80 80 80
76 73 69 64 60 71 83 81 84 82 76 74 75 74 70 64 69 79 83 87 81 78 85 86 74 70 65 70 68 75 82 84 78 79 80 81 80 81
55 62 72 70 83 84 81 76 69 65 63 60 65 77 83 86 85 84 83 82 94 84 84 90 82 82 77 67 64 68 76 78 83 88 86 85 84 82
65 67 68 74 83 82 78 74 71 65 62 74 74 68 62 62 69 72 74 80 86 92 82 83 84 96 93 71 74 77 71 72 85 89 91 89 87 90
63 64 68 81 79 76 78 69 68 79 83 76 67 65 70 76 81 85 89 89 91 96 90 97 98 97 97 92 86 86 83 80 83 85 83 93 99 96
63 68 71 78 72 75 74 74 84 88 72 69 74 83 88 90 97 99 98 100 100 100 99 100 98 98 97 94 89 83 88 92 88 87 84 84 92 93
64 65 63 63 65 55 69 80 83 72 74 79 88 88 95 99 100 100 100 100 99 97 99 100 96 92 100 97 95 94 89 87 91 84 88 98 93 92
72 65 60 57 58 60 67 72 74 76 81 85 91 95 99 99 99 98 100 100 96 93 88 87 93 97 99 100 100 97 96 98 96 100 100 100 100 99
73 49 49 52 61 70 74 76 79 84 90 92 95 98 98 97 97 100 99 92 100 96 93 91 90 90 91 94 100 98 96 98 94 97 100 99 96 94
56 51 52 63 73 82 86 88 92 94 96 97 100 99 97 96 96 97 95 96 100 96 96 88 90 99 94 88 87 100 99 95 90 97 100 99 96 90
55 55 61 70 78 85 88 93 96 100 100 99 98 97 96 94 95 97 98 100 100 95 94 94 100 98 94 91 74 73 79 88 94 98 98 97 96 92
61 63 68 71 77 84 88 95 98 100 100 100 98 98 97 94 96 100 99 100 100 98 97 91 91 93 96 94 94 88 88 90 98 98 98 96 95 96
65 70 71 73 74 78 88 95 100 100 100 100 99 99 97 99 99 100 100 97 96 97 96 94 88 92 96 97 96 83 78 83 84 92 99 99 95 92
71 72 72 74 78 80 82 90 96 97 100 100 100 100 99 100 100 100 100 100 100 100 99 99 97 100 100 95 92 89 90 81 78 80 82 92 99 96
72 73 76 80 82 83 87 89 92 94 98 100 100 100 99 100 100 100 100 99 100 100 98 97 96 98 94 92 93 91 85 84 80 82 80 81 86 91

GFSNE_925_rhum_081.txt.gz
RH
100 100 100 97 92 85 80 77 79 97 92 81 79 88 91 92 96 100 99 95 90 94 92 93 83 76 77 77 80 81 81 80 79 78 77 75 72 75
100 100 100 100 98 95 91 88 86 90 97 94 99 95 98 98 97 100 91 80 85 96 86 72 70 73 75 78 81 81 81 81 80 78 75 73 76 72
100 100 100 99 98 95 94 96 99 100 98 99 99 98 96 98 85 83 83 68 51 49 68 70 72 74 74 74 76 81 82 81 79 77 82 83 85 84
100 100 99 98 95 94 94 97 99 99 96 98 96 95 89 81 63 57 54 56 59 61 72 72 65 64 69 75 79 81 79 80 80 80 79 81 82 83
100 99 98 98 99 96 91 89 93 93 92 92 76 69 64 61 64 64 64 66 67 63 60 59 66 72 80 80 79 79 79 81 80 78 77 75 77 77
94 94 92 89 88 94 97 98 97 86 69 70 76 76 81 81 73 70 68 60 56 55 45 58 74 71 77 76 80 79 79 78 78 78 77 77 74 76
83 84 93 96 99 96 94 92 91 89 83 82 86 85 80 70 70 62 60 60 56 56 65 66 58 57 55 60 61 62 83 80 78 77 76 74 74 81
98 99 99 99 99 95 93 94 81 76 75 86 83 84 82 72 66 64 63 71 84 74 80 74 68 60 59 60 62 80 80 82 80 80 83 81 83 80
93 94 93 65 46 47 69 75 79 90 87 85 86 87 85 73 69 67 73 82 87 83 78 80 71 63 61 62 61 85 88 88 88 86 82 80 80 81
59 53 53 58 62 79 84 83 87 83 76 75 72 68 66 72 78 84 88 89 82 75 82 90 76 71 70 60 59 60 82 82 85 88 89 89 88 88
55 62 67 76 84 86 79 74 69 66 64 64 69 80 82 79 78 76 75 76 84 84 82 90 83 82 76 64 64 66 82 75 89 94 92 93 92 91
65 70 80 75 83 79 76 69 61 60 64 66 72 67 64 67 71 73 79 82 80 84 83 96 95 95 91 78 80 82 79 74 80 90 96 97 97 91
64 65 66 81 79 75 77 66 68 82 85 73 69 72 80 86 88 90 94 96 96 91 91 99 97 97 96 92 84 83 82 75 77 77 77 76 85 99
58 63 64 70 70 72 72 74 83 90 73 73 82 86 88 94 97 99 99 98 99 98 96 97 99 99 99 94 90 81 82 82 85 85 82 79 86 92
60 71 72 63 59 58 58 76 80 72 74 77 85 88 96 100 99 100 99 97 96 93 88 86 91 95 100 98 97 97 91 90 94 90 95 100 99 100
68 57 56 58 57 63 67 72 74 77 84 86 91 97 98 99 96 95 96 95 95 86 82 86 84 87 95 100 100 98 95 98 91 97 100 98 99 97
74 44 47 52 60 70 75 80 83 88 93 96 95 98 98 96 93 94 94 92 100 100 94 81 77 84 90 93 100 99 98 94 95 96 99 99 96 97
64 51 52 59 68 77 84 87 91 97 98 100 100 98 95 94 93 94 92 94 100 100 97 86 86 97 95 87 87 100 95 92 86 92 96 100 96 91
56 53 57 64 74 81 88 88 95 99 100 100 100 99 95 93 98 93 93 97 100 99 95 91 96 100 96 92 76 76 81 89 92 97 98 99 96 94
61 63 65 67 69 74 82 88 95 100 100 100 100 97 97 96 98 100 98 100 100 100 100 99 98 97 99 93 95 89 80 85 92 94 92 96 90 90
58 62 66 71 71 73 74 79 90 95 100 99 100 100 98 99 97 100 99 100 98 100 100 97 94 99 99 98 96 87 81 83 85 89 96 96 93 92
63 64 66 71 73 75 78 81 83 89 93 97 100 100 100 98 98 97 100 100 100 100 100 100 99 100 100 99 94 89 87 84 84 86 82 87 93 95
63 68 69 69 71 75 81 83 88 90 90 88 88 90 100 98 97 99 100 100 100 100 100 98 99 98 96 98 97 90 82 87 87 85 85 79 78 80

GFSNE_925_rhum_084.txt.gz
RH
100 100 100 100 100 96 93 90 93 99 96 81 66 68 70 82 94 100 99 99 99 99 98 99 99 99 91 80 78 78 80 81 80 78 76 75 73 72
99 100 100 100 100 99 95 93 92 92 96 86 88 91 96 98 100 99 99 98 96 93 99 99 93 76 74 77 79 79 79 80 79 77 74 79 79 84
100 100 100 100 100 99 97 98 98 98 98 100 100 100 100 99 98 91 85 82 73 61 77 76 75 76 76 73 73 76 79 78 76 79 83 85 86 88
99 99 100 99 98 96 94 95 97 98 95 98 99 96 94 94 85 68 55 55 61 65 77 77 74 69 70 74 78 81 80 83 83 84 83 82 84 84
100 99 98 96 95 96 94 92 91 90 89 91 93 88 69 60 59 64 67 66 68 68 61 57 61 68 78 85 87 87 85 84 84 82 80 78 77 76
95 93 92 91 90 90 92 92 89 80 76 69 70 74 67 77 78 75 70 63 58 56 45 51 65 68 65 80 87 83 78 83 84 83 81 79 76 75
89 86 85 87 91 90 88 86 83 72 74 81 83 85 84 75 72 66 64 63 54 51 65 54 51 50 55 59 57 56 68 88 84 83 81 77 77 80
93 99 100 100 99 100 93 79 71 70 77 86 86 86 82 78 72 69 66 74 86 68 73 56 56 52 58 57 57 83 87 90 88 85 85 79 82 84
95 95 92 63 49 47 70 76 82 90 89 88 86 87 86 80 73 72 67 78 87 75 78 75 61 61 62 59 61 86 96 92 88 86 88 90 87 85
57 47 45 52 68 76 75 78 82 82 76 77 76 68 65 71 80 87 89 91 85 73 78 89 72 72 70 62 63 74 89 89 94 93 95 92 91 90
57 56 58 75 86 89 71 69 69 69 67 72 77 81 84 84 81 78 82 78 79 81 83 93 81 85 78 67 64 62 66 80 89 94 93 93 95 94
63 76 75 70 80 79 71 62 57 53 59 58 63 70 66 68 75 75 80 87 95 86 87 97 95 90 86 77 73 72 70 69 74 90 91 98 99 97
58 59 60 81 78 75 79 70 60 83 86 74 69 72 78 85 88 92 97 98 95 92 85 97 99 98 94 86 84 82 79 74 77 77 80 82 77 100
52 57 58 67 70 72 73 70 80 87 75 72 80 84 86 91 96 99 100 99 100 96 95 97 95 92 100 98 91 80 88 85 90 89 84 82 86 92
55 64 76 69 64 54 56 75 82 71 74 79 84 89 94 99 99 98 98 98 97 99 98 85 90 91 100 100 98 98 98 96 94 88 90 93 88 88
62 55 44 65 62 66 69 70 73 76 83 87 89 93 99 100 100 98 98 97 96 91 81 79 79 86 95 100 100 98 98 99 94 89 88 91 96 98
72 48 44 48 53 63 73 77 82 86 93 94 94 94 99 97 95 95 95 94 95 100 97 76 74 79 89 96 100 100 98 100 98 87 90 95 90 93
70 56 49 52 58 65 76 83 87 91 96 96 97 98 97 96 92 94 93 95 100 100 96 85 85 95 96 90 84 100 100 94 83 84 93 100 98 96
74 56 51 55 58 71 81 88 88 94 97 99 100 99 96 92 98 92 94 96 96 95 91 88 94 100 96 92 80 79 81 82 93 100 100 99 98 93
54 61 61 62 66 69 70 79 88 89 98 100 99 100 100 98 98 98 97 100 100 95 96 97 96 94 100 94 94 90 91 91 93 99 96 95 95 93
62 57 55 60 65 70 71 73 76 84 92 95 93 100 100 100 100 98 99 100 99 100 100 98 88 99 98 99 97 90 87 83 82 89 92 96 94 92
68 66 59 62 65 68 73 78 81 83 84 87 89 94 97 100 99 100 100 100 100 100 100 100 99 100 100 100 94 91 91 86 84 81 84 89 97 94
58 59 56 59 63 68 73 76 79 77 75 80 85 86 90 95 90 98 100 99 100 100 100 99 98 99 98 98 97 96 96 91 86 84 86 82 82 83

GFSNE_925_rhum_087.txt.gz
RH
91 99 99 100 100 100 100 99 96 99 97 88 78 78 72 71 80 83 83 92 100 99 98 98 98 98 99 99 94 87 80 78 79 77 76 75 74 73
94 99 99 100 99 100 99 98 96 98 97 92 88 86 84 86 91 99 99 99 98 98 98 99 100 97 85 78 78 78 78 77 77 76 75 74 75 84
98 99 99 99 100 99 97 96 95 95 98 100 100 100 100 100 99 100 98 91 88 83 86 80 80 79 78 77 75 76 77 78 78 74 80 84 84 85
98 99 99 99 98 96 93 92 93 95 96 98 100 98 96 94 92 86 71 65 59 60 70 81 80 77 75 75 75 79 82 80 89 82 80 78 77 81
96 97 94 94 93 94 92 91 88 86 86 88 93 92 79 66 64 64 67 68 66 66 65 58 55 68 80 82 85 87 85 84 89 84 84 83 81 79
94 95 94 93 90 87 86 86 82 80 83 82 77 72 70 77 77 73 67 63 59 56 49 38 56 55 56 72 88 81 78 86 86 87 86 84 83 77
92 91 88 87 89 91 88 86 81 70 67 64 76 80 84 76 71 67 66 63 46 35 52 54 54 49 54 58 57 57 59 88 89 88 86 83 82 79
99 97 99 99 99 99 81 67 64 64 63 81 87 85 80 78 75 73 67 66 70 63 71 60 56 55 58 58 58 79 89 94 94 90 87 80 87 85
99 99 94 73 56 57 78 75 87 93 89 85 83 83 84 80 75 73 68 72 87 78 78 68 58 56 58 57 58 61 86 94 94 95 91 90 90 85
78 53 42 54 66 64 65 70 75 80 75 76 78 70 63 69 78 87 88 91 87 73 78 86 67 66 60 58 64 69 95 84 88 93 94 94 89 90
50 54 66 81 92 78 53 55 62 68 70 76 77 78 86 89 88 85 82 88 79 77 80 88 86 81 73 64 66 67 69 65 85 91 94 94 93 94
65 74 67 68 77 78 55 49 47 44 52 54 56 62 67 74 78 78 81 86 92 91 87 90 91 91 88 68 63 60 61 66 71 92 94 97 98 96
56 56 60 79 74 74 78 66 52 75 82 77 65 69 75 83 90 93 97 99 96 95 94 97 90 91 91 86 84 81 79 76 83 79 79 88 87 100
46 51 53 58 67 71 69 65 79 87 84 70 76 83 84 89 92 97 100 100 99 98 95 96 96 95 99 97 89 84 91 97 90 88 80 73 78 83
49 56 79 79 68 55 52 75 78 79 72 77 80 86 91 94 99 99 97 97 95 95 98 100 100 96 100 100 98 99 96 94 100 91 83 84 79 78
53 53 48 63 61 53 57 67 69 73 78 86 88 91 96 99 100 97 96 97 97 95 88 84 84 87 91 100 100 100 100 99 89 100 88 83 79 82
57 57 39 42 48 54 63 71 76 82 92 92 92 93 95 97 97 96 95 94 95 96 100 77 78 82 86 89 100 99 100 98 94 84 87 94 87 89
69 60 49 46 51 55 61 71 80 88 91 92 94 94 94 94 94 92 95 95 100 98 91 83 82 92 93 80 79 81 84 88 79 82 88 100 100 92
80 69 62 50 51 56 64 76 82 89 87 94 97 97 98 96 99 95 95 95 98 93 89 87 91 100 96 93 80 80 82 84 85 94 95 100 100 97
58 49 50 58 59 60 65 68 70 81 93 89 91 96 97 97 98 100 100 99 99 95 93 93 94 94 98 93 94 90 89 94 91 95 99 98 98 94
50 56 55 55 55 58 63 69 71 73 75 86 94 95 96 100 100 100 100 100 99 100 100 94 81 96 99 99 97 89 86 87 91 93 94 100 94 92
47 50 56 61 59 60 62 65 70 75 76 80 81 86 91 97 100 100 100 100 100 100 100 93 86 91 98 100 94 91 92 92 86 89 93 94 98 95
28 36 44 51 54 58 64 66 68 69 69 70 72 73 80 89 87 88 90 96 100 100 100 100 97 98 100 100 95 93 96 97 94 97 92 82 85 84

GFSNE_925_rhum_090.txt.gz
RH
93 93 99 100 98 99 100 100 98 99 98 92 80 82 77 75 80 82 90 98 99 97 98 98 97 98 98 99 97 91 87 83 80 77 75 74 75 74
81 74 86 99 99 99 100 98 99 99 99 94 92 87 81 78 78 83 84 87 89 97 99 99 99 98 94 86 82 81 79 78 77 75 75 74 74 80
94 87 93 99 99 99 98 97 96 96 98 100 100 98 96 98 97 98 98 97 94 92 91 86 83 83 82 82 80 79 80 79 77 76 77 83 85 82
93 90 96 93 97 97 95 94 93 93 94 99 100 99 98 100 96 92 89 79 62 59 59 79 83 83 82 80 77 76 81 84 86 79 84 82 82 78
94 98 94 94 92 91 89 89 87 88 90 92 96 96 89 79 69 67 66 64 64 65 62 62 58 65 56 73 87 88 89 91 90 89 88 86 86 83
94 91 92 92 91 89 85 82 82 83 84 84 82 76 73 72 71 72 69 62 58 56 50 41 46 44 46 47 53 65 57 57 79 88 90 87 84 81
93 92 90 88 87 87 85 83 79 71 65 59 67 73 82 77 72 67 65 62 46 34 41 50 53 51 49 52 55 55 55 76 94 91 90 86 84 81
94 99 99 99 100 94 71 62 56 54 52 62 80 80 78 76 73 72 67 64 50 58 70 57 54 52 55 59 58 62 85 95 97 94 90 88 89 86
99 99 98 93 81 78 87 77 93 90 72 69 72 75 77 76 74 71 66 74 86 79 80 66 60 56 59 59 56 59 83 98 95 92 95 94 94 91
88 62 50 50 52 51 52 57 68 75 72 73 75 70 63 62 73 85 85 84 86 76 78 82 71 68 59 60 64 72 99 93 87 88 94 94 92 89
46 54 61 80 91 56 44 49 57 67 74 84 79 84 90 95 92 90 86 87 79 78 86 91 90 82 69 60 64 68 94 77 59 84 92 96 94 92
58 63 62 67 77 77 50 45 44 42 50 57 58 59 61 86 79 79 83 88 94 90 93 93 91 90 85 68 61 56 56 57 58 67 89 100 98 94
58 63 65 76 70 72 76 61 53 66 78 76 66 66 73 82 90 92 95 99 95 92 93 97 98 86 91 88 85 77 73 68 68 69 75 79 85 100
44 45 48 52 60 63 60 54 77 87 84 69 70 81 84 91 95 96 99 97 100 97 94 96 99 96 95 96 92 82 86 81 81 77 78 71 74 80
42 49 69 79 72 56 48 74 78 78 72 73 78 82 89 93 98 99 100 99 98 96 97 98 97 96 98 99 97 99 99 83 80 76 69 74 74 74
52 52 47 48 58 53 52 57 65 68 74 80 88 89 92 95 98 98 96 96 95 90 90 87 88 92 93 93 96 100 100 100 75 77 77 81 77 78
44 49 43 38 42 45 48 55 66 74 84 91 91 90 96 97 96 96 96 93 94 95 89 79 81 86 87 87 98 89 84 86 78 75 86 89 83 81
60 53 52 44 42 45 50 55 65 80 87 91 89 92 92 94 95 94 94 94 96 96 94 85 86 91 93 80 77 80 80 81 77 79 86 96 96 77
76 69 66 61 53 48 51 56 63 68 86 87 85 89 91 96 98 96 97 99 99 98 91 88 90 100 97 95 79 80 88 86 88 86 90 90 99 81
66 61 54 45 45 50 52 57 60 65 72 89 93 89 88 90 94 95 97 99 100 97 93 93 95 92 100 94 93 89 83 89 91 94 94 90 93 95
43 43 44 51 52 50 50 53 60 66 67 70 73 85 95 96 96 99 100 97 95 98 97 91 82 94 97 98 98 91 84 88 95 97 99 100 98 96
48 47 44 48 54 56 53 55 60 63 64 68 72 78 83 89 95 99 100 100 100 100 98 82 81 88 97 100 95 96 94 90 93 98 98 98 100 96
36 32 30 31 36 45 48 51 57 59 60 62 65 67 73 78 76 83 89 92 96 98 97 100 98 100 99 100 100 97 97 92 94 96 91 81 84 96

GFSNE_925_rhum_093.txt.gz
RH
100 100 100 100 98 99 100 100 98 99 95 92 86 83 80 76 85 83 84 97 100 98 93 91 94 99 98 97 99 92 88 86 84 81 78 76 75 74
100 100 96 95 86 98 99 100 100 99 98 95 93 89 82 81 82 84 89 98 97 93 90 98 99 98 94 90 86 85 83 82 81 79 77 75 75 78
98 92 92 96 91 96 98 96 97 98 99 100 97 94 90 90 88 88 92 92 94 94 93 93 88 85 84 84 84 83 83 82 79 79 78 79 76 74
93 98 97 98 94 94 94 94 93 93 94 99 100 100 100 100 98 96 92 88 79 65 63 71 84 84 84 78 82 79 78 82 87 87 83 82 84 82
98 97 96 95 94 92 87 85 86 88 90 94 99 98 96 92 81 72 67 63 59 58 58 62 60 57 56 55 57 86 91 92 93 93 91 89 88 85
97 96 93 90 87 86 84 80 81 80 83 87 87 86 81 74 69 73 70 63 58 54 51 46 37 34 37 35 44 50 56 55 73 89 92 91 89 85
94 92 91 89 84 80 78 79 77 77 78 77 82 80 83 78 73 66 65 58 52 38 39 42 46 47 46 46 48 49 50 52 76 94 93 90 86 85
92 95 95 93 88 82 75 67 60 55 51 62 68 71 77 75 67 70 69 65 44 49 74 71 55 56 54 54 54 52 51 55 82 93 92 97 94 88
95 96 98 98 91 87 90 92 90 56 54 51 63 67 73 70 67 67 63 70 76 82 82 70 58 62 57 55 52 50 62 96 96 92 93 95 93 90
100 95 78 63 56 44 49 54 61 63 63 62 65 65 60 57 61 74 81 80 85 81 75 79 76 74 61 59 62 92 98 97 95 87 86 94 95 94
53 49 54 62 61 46 39 44 54 64 78 74 70 82 84 93 91 87 90 93 75 80 85 91 90 87 74 66 64 85 96 91 71 55 74 96 97 98
62 73 71 72 87 48 36 36 38 40 49 57 57 57 58 94 77 77 78 90 93 87 93 98 98 94 87 68 64 62 61 58 55 57 58 80 99 94
57 67 75 77 68 76 59 48 46 53 83 70 64 61 67 78 82 86 88 89 99 96 94 99 100 97 94 92 87 69 67 61 61 62 62 70 71 95
45 46 52 62 53 59 54 48 78 88 78 70 65 75 82 89 93 93 95 98 96 99 99 96 100 100 99 94 88 88 91 94 87 77 77 64 66 72
35 40 44 63 70 58 45 64 79 76 72 66 76 78 81 88 92 96 99 96 96 99 98 97 97 100 100 99 97 96 98 88 87 84 72 90 86 82
42 62 52 48 51 48 51 62 59 60 64 70 77 85 90 94 98 97 97 100 100 100 88 88 88 91 96 100 100 100 98 99 77 88 98 98 92 89
49 49 50 39 41 43 46 50 56 63 73 77 86 90 92 99 100 99 96 100 100 100 100 90 84 84 85 86 100 98 96 98 97 93 94 99 89 93
63 52 45 42 39 40 43 46 49 61 69 80 92 96 96 98 99 97 99 100 100 99 100 100 92 93 94 81 75 73 89 98 87 95 99 100 95 82
75 55 54 53 47 44 42 44 45 48 60 76 83 84 88 98 92 100 98 100 98 99 100 100 91 100 93 88 79 89 99 99 98 94 95 97 97 87
77 65 55 50 46 43 44 46 46 50 57 61 75 84 88 95 100 97 94 94 95 97 99 100 99 92 99 90 92 84 86 81 93 97 97 98 100 100
62 56 41 38 39 42 43 44 45 47 51 58 61 64 69 87 100 100 94 95 92 91 94 91 82 91 96 100 97 89 82 87 94 98 99 98 96 93
56 47 38 37 40 42 46 51 50 49 48 52 55 60 65 75 87 99 97 98 97 96 99 94 84 94 100 100 96 93 91 89 91 95 98 98 97 93
51 47 43 42 40 36 36 46 50 46 46 49 53 55 61 70 71 77 84 98 100 100 99 98 97 97 100 100 100 99 97 96 93 94 92 92 87 94

GFSNE_925_rhum_096.txt.gz
RH
99 100 100 100 98 98 99 99 98 94 87 96 94 89 89 83 89 86 92 98 97 100 100 98 97 88 82 87 92 91 90 89 87 86 82 78 76 74
100 100 99 100 100 100 97 99 99 99 96 98 98 92 84 86 90 96 90 100 99 100 97 91 86 87 92 91 89 87 87 86 85 84 81 78 75 74
100 100 100 100 97 93 98 98 99 100 99 100 98 94 92 99 98 99 86 89 89 86 87 90 92 89 86 85 86 87 86 84 80 80 81 80 78 76
100 100 99 94 95 99 97 97 95 97 99 99 99 99 100 98 99 98 92 84 80 77 77 77 82 82 79 73 67 67 80 80 85 90 90 87 85 83
99 99 99 97 97 96 98 94 92 90 93 92 98 99 96 91 84 79 75 68 64 58 55 55 54 55 55 52 48 42 66 90 92 94 92 92 90 88
100 100 96 96 95 92 86 85 86 86 91 87 82 83 82 83 79 72 66 64 61 57 50 44 40 45 32 32 29 35 45 54 58 78 91 93 91 90
98 95 92 90 87 84 82 83 82 80 80 92 82 77 79 72 64 64 58 54 51 56 50 48 53 55 58 54 45 46 48 50 74 94 96 94 90 90
93 92 90 86 83 80 78 76 75 78 79 75 81 66 63 63 62 55 55 52 40 58 60 52 64 60 62 64 64 51 51 61 84 76 92 92 95 93
92 93 94 95 90 91 94 66 51 41 48 54 49 46 53 58 65 73 64 61 59 59 74 59 64 58 61 62 57 49 48 55 79 93 94 94 94 93
96 94 92 89 83 63 64 50 62 62 61 56 66 69 71 71 71 63 78 80 73 73 79 73 65 62 63 68 63 63 83 94 95 96 95 94 96 96
89 77 72 70 45 44 47 54 64 76 64 53 58 58 58 63 78 84 84 77 68 63 78 76 73 78 75 74 68 69 93 94 92 72 69 85 83 97
76 69 79 74 42 33 46 44 43 52 62 68 70 61 63 90 89 85 94 94 83 79 86 92 93 89 87 77 74 74 73 75 67 54 69 72 76 91
75 73 74 80 81 55 44 51 45 53 61 67 62 65 73 88 87 88 92 95 99 93 91 98 100 99 93 90 83 83 85 82 77 80 83 83 63 71
64 69 74 74 60 68 59 41 80 78 74 67 65 71 76 85 96 98 99 99 100 100 99 99 100 100 98 97 86 86 88 90 91 91 88 88 89 92
47 45 50 57 58 59 43 59 84 79 71 69 68 80 92 99 96 95 95 95 95 96 99 98 99 99 99 100 97 95 95 91 94 98 96 98 95 91
38 58 72 70 69 61 53 77 70 67 69 75 75 83 99 100 99 100 100 100 100 100 99 88 89 96 100 100 100 100 99 97 94 98 96 100 99 95
68 66 60 58 58 58 57 56 61 66 76 74 85 90 92 92 97 100 98 100 99 98 97 100 100 100 100 100 100 96 95 97 96 95 100 100 97 95
55 50 44 41 42 41 45 51 58 68 74 86 91 91 90 91 90 98 98 99 98 96 97 99 100 100 93 88 83 87 96 95 94 99 98 96 95 92
69 54 49 51 51 52 52 60 70 71 79 93 94 94 94 92 90 88 91 96 94 91 92 97 100 99 89 81 69 83 97 95 95 93 91 92 92 92
69 71 69 67 65 62 64 65 69 71 60 81 94 95 96 94 90 88 86 85 83 83 85 88 91 96 90 82 85 84 86 93 94 94 93 92 94 96
84 84 78 68 58 50 44 44 45 56 70 77 85 94 96 95 91 88 86 84 83 83 82 80 83 90 93 99 95 82 80 86 94 98 98 100 95 88
78 74 64 46 40 35 35 40 46 47 55 68 64 77 80 93 93 89 84 83 82 82 84 87 92 97 98 95 92 90 91 89 88 93 95 97 99 90
81 69 55 46 39 37 35 41 43 46 47 50 57 58 72 91 89 87 87 86 87 88 88 87 87 89 91 92 92 94 94 92 89 89 89 91 93 96

GFSNE_925_rhum_099.txt.gz
RH
99 99 98 95 93 92 92 90 92 97 96 98 95 94 92 87 84 100 100 100 88 90 96 96 96 94 92 86 81 82 86 89 90 89 86 82 79 76
97 100 100 100 98 99 99 99 96 92 90 95 100 96 87 86 89 95 89 100 99 96 94 95 93 88 82 83 86 85 86 88 88 87 83 80 77 75
99 100 100 100 100 100 100 98 99 100 99 100 99 96 94 95 89 95 88 92 89 89 86 83 81 82 86 85 84 84 89 86 82 80 83 83 79 77
99 100 99 100 100 100 94 95 94 100 98 99 99 100 100 100 100 99 90 84 82 84 85 84 81 80 80 78 68 61 57 70 82 89 91 90 86 82
100 100 100 100 100 99 94 94 96 96 98 93 97 98 98 96 90 80 78 77 71 67 60 56 54 54 52 50 46 44 39 43 91 93 94 93 92 90
99 100 99 100 95 96 93 94 90 89 88 89 85 88 85 83 77 77 71 65 62 59 53 47 40 37 32 30 34 32 29 39 51 66 90 94 94 93
100 99 99 97 96 93 88 84 83 82 80 84 88 83 82 80 72 67 62 58 53 48 46 48 47 51 55 58 54 47 44 45 48 84 95 96 94 94
98 96 93 92 89 84 81 80 79 81 88 85 79 82 68 65 65 60 54 53 48 49 52 52 53 57 61 61 64 57 50 44 48 71 90 95 95 96
97 95 92 89 84 81 82 71 71 73 71 65 65 50 58 57 57 60 62 60 61 61 55 60 58 60 57 60 58 53 46 44 45 70 94 95 93 88
96 92 90 90 92 88 68 56 48 43 42 48 57 58 60 58 52 50 56 68 68 69 66 73 64 65 61 64 67 62 54 80 91 96 90 96 95 95
94 90 86 82 68 62 46 54 60 61 43 50 55 52 53 59 69 72 81 75 72 64 75 76 76 81 72 72 72 64 59 88 93 92 82 91 94 94
78 75 73 69 46 47 45 46 53 58 56 51 43 45 52 62 66 78 88 92 83 78 82 88 94 92 92 80 71 72 70 75 79 82 70 88 90 93
77 76 78 83 47 30 44 42 41 40 58 60 58 62 70 86 73 80 85 98 95 88 93 89 96 97 92 90 86 83 82 79 78 76 75 87 88 90
66 65 72 77 73 67 49 40 39 67 69 63 59 64 70 77 88 94 97 97 98 99 98 97 94 95 94 92 92 86 88 88 81 80 86 84 94 95
56 60 77 75 63 68 47 61 83 78 68 65 66 71 85 93 97 98 89 91 88 92 100 98 97 97 97 95 96 98 100 89 85 86 80 97 99 94
49 54 54 63 63 64 55 53 73 72 67 76 70 80 93 100 96 95 99 99 100 100 98 99 97 100 100 100 100 99 100 99 84 89 94 99 100 99
49 63 67 62 59 58 56 61 64 60 58 63 76 88 94 94 93 97 98 98 94 95 94 94 93 97 100 100 100 100 99 96 98 93 96 98 100 96
68 62 55 49 47 49 48 49 53 58 63 79 84 90 91 91 93 88 95 94 94 93 93 91 94 93 95 92 86 88 94 98 93 90 91 98 94 85
66 51 46 44 42 42 41 44 52 55 62 73 84 91 91 91 92 91 91 88 91 92 92 90 90 94 94 94 76 76 83 87 99 97 93 95 96 91
82 69 58 52 50 51 49 47 54 67 65 65 75 85 91 92 92 92 90 91 90 87 86 87 91 92 93 90 88 81 72 70 68 86 97 94 94 94
86 80 68 65 60 55 48 51 52 53 56 60 66 77 82 90 93 92 92 87 86 87 90 90 87 90 95 96 99 89 73 80 88 96 95 98 96 92
77 78 76 73 66 56 44 43 44 47 59 68 62 62 64 74 86 88 91 89 87 85 86 86 86 89 95 96 94 94 92 92 92 88 89 96 95 94
73 73 70 69 63 53 46 41 36 37 44 51 54 52 58 66 68 80 86 87 86 86 84 87 87 89 92 96 95 91 89 90 91 93 90 86 91 93

GFSNE_925_rhum_102.txt.gz
RH
98 98 98 95 91 90 88 86 88 99 99 98 92 91 91 92 90 91 90 96 93 99 100 98 96 96 92 90 87 82 82 85 86 90 89 86 83 80
100 99 98 99 99 97 93 91 90 90 95 96 96 94 91 88 95 93 90 100 94 94 95 94 93 92 88 83 80 83 85 84 85 88 82 81 79 78
95 96 94 96 100 100 99 100 99 99 96 100 97 98 95 91 91 90 90 89 87 94 95 92 86 81 82 83 84 83 81 78 78 80 85 85 83 80
96 100 99 100 99 100 100 99 100 99 100 99 100 100 97 100 97 96 91 89 86 85 86 85 84 83 81 79 78 67 56 46 53 82 90 92 90 87
99 100 100 100 100 100 99 99 100 97 99 96 99 99 98 99 98 90 83 79 79 72 67 63 59 57 55 52 48 43 40 35 44 85 79 90 93 92
99 99 99 100 100 100 99 96 97 94 96 93 93 95 92 91 85 79 75 69 63 60 56 48 42 39 35 35 42 48 28 26 39 54 71 86 96 95
100 100 100 99 99 98 96 94 90 87 87 88 85 84 82 82 79 78 71 66 59 55 45 38 42 43 45 59 54 51 44 41 45 49 84 95 96 95
98 100 100 99 99 97 92 86 82 81 83 84 85 82 81 76 72 66 61 53 53 51 43 37 52 54 54 60 60 60 56 47 45 48 61 71 86 84
98 98 95 93 92 88 86 82 81 82 82 82 78 78 69 66 65 59 55 53 55 61 57 46 58 55 58 59 57 57 56 49 43 45 70 92 83 93
100 97 91 88 87 84 76 68 66 68 64 57 60 52 53 52 52 51 54 52 61 64 59 61 69 64 62 64 66 66 59 57 79 94 90 90 96 95
97 94 92 91 94 76 58 51 45 44 50 52 53 52 54 56 47 47 60 63 74 71 70 67 81 77 64 61 68 69 59 72 94 97 85 77 94 97
90 90 87 83 81 59 44 43 49 52 42 38 39 40 43 55 64 67 74 77 84 72 78 74 88 84 76 84 81 71 68 66 83 86 87 88 92 91
85 78 76 83 68 50 41 39 41 44 47 49 51 50 64 70 55 58 65 70 88 86 94 84 93 95 92 91 83 76 78 76 74 74 71 71 86 96
76 70 74 88 74 38 41 37 54 41 48 55 57 60 69 79 80 79 75 80 88 95 95 96 89 95 92 90 90 83 74 73 73 68 70 72 71 75
65 62 67 78 74 79 55 50 67 64 64 62 59 63 68 76 88 95 96 88 85 85 96 100 98 97 95 94 93 93 99 87 77 74 74 86 91 92
57 67 78 73 57 48 54 65 72 70 66 62 66 70 80 92 98 93 95 98 100 99 99 99 99 100 100 100 98 100 100 100 79 78 86 96 98 99
46 54 70 73 71 68 61 48 57 73 67 68 76 76 85 88 95 92 96 97 97 93 94 92 93 92 94 98 100 100 100 99 78 83 98 91 88 84
66 61 64 61 57 53 52 52 60 58 52 54 64 77 88 92 92 94 88 92 91 91 90 90 89 94 90 86 91 98 100 96 73 87 92 93 82 71
69 60 56 48 44 43 44 46 43 44 50 56 74 77 88 91 93 95 93 87 89 88 87 89 90 86 98 94 77 69 90 94 100 100 90 74 83 85
74 70 51 44 42 42 40 40 40 44 50 54 66 72 81 87 90 92 92 93 94 93 92 90 92 91 92 89 81 76 72 72 67 62 73 82 84 88
90 86 73 57 54 47 42 42 42 42 46 56 59 59 65 81 89 88 88 93 92 91 90 88 77 75 87 97 99 95 78 68 81 93 95 100 100 96
90 84 74 62 60 58 52 49 50 52 53 56 56 52 53 62 76 76 83 87 82 83 84 84 84 86 88 87 92 92 83 80 82 86 88 98 99 94
94 88 75 66 58 63 67 64 57 47 44 44 44 48 52 60 64 67 68 70 78 81 78 84 88 88 88 90 98 100 100 96 92 86 76 70 80 94

GFSNE_925_rhum_105.txt.gz
RH
90 94 90 94 97 96 94 92 90 98 98 98 92 94 94 90 88 85 88 94 100 100 100 99 99 98 96 94 92 90 87 85 84 86 90 89 86 83
100 100 100 94 90 91 94 97 94 94 95 94 99 94 92 91 91 91 94 99 99 98 98 97 94 94 91 89 86 84 83 83 84 85 82 82 81 80
91 94 99 100 99 99 100 99 97 96 95 100 98 98 95 93 93 88 89 96 97 98 96 94 93 90 84 82 84 85 85 82 77 74 82 83 85 82
79 80 75 93 93 98 99 98 100 100 99 99 100 99 96 96 91 89 89 89 87 86 88 85 83 84 85 84 82 81 72 58 47 44 39 73 89 88
89 93 98 100 100 99 99 100 100 100 100 99 100 100 99 100 100 98 92 86 81 78 79 79 76 73 70 62 57 51 43 36 34 31 45 71 87 91
98 98 97 99 100 100 99 100 100 100 100 99 99 99 97 99 99 93 83 79 74 62 59 56 52 48 45 42 45 62 39 24 25 47 72 73 77 93
98 98 99 100 100 100 100 100 100 100 100 99 94 93 90 93 92 84 78 71 66 61 58 44 38 38 37 41 46 47 42 39 43 62 84 95 88 94
88 96 99 100 100 100 100 100 97 94 92 92 89 85 84 82 84 80 74 69 60 56 49 39 41 46 49 49 55 56 56 53 51 56 85 95 97 82
92 95 98 99 100 98 96 93 90 88 85 83 82 82 81 78 77 71 66 58 49 51 52 42 49 55 57 60 62 58 59 57 50 47 60 96 91 89
99 100 97 95 94 92 92 88 85 85 82 81 79 78 74 70 67 66 60 53 58 58 56 43 69 64 64 64 68 66 64 57 77 73 98 90 89 95
99 99 95 91 92 91 79 75 71 71 62 56 59 55 53 53 50 46 52 53 66 69 67 60 74 73 68 63 66 70 66 59 96 100 98 92 94 96
98 97 96 94 98 87 67 60 51 55 54 54 59 62 59 55 47 44 43 49 74 76 75 72 85 74 70 85 78 72 68 66 83 89 91 91 97 93
92 93 92 92 96 84 52 45 40 43 45 41 41 46 54 61 55 58 66 65 80 86 85 80 84 89 91 87 77 78 78 78 75 73 74 73 72 99
90 89 82 93 78 61 49 36 38 41 47 50 52 53 65 71 61 61 60 67 83 80 84 87 84 90 93 92 86 88 84 69 66 67 73 72 72 78
77 84 71 90 89 69 44 53 66 52 51 57 57 57 59 70 77 78 82 84 85 82 86 94 99 97 95 95 95 92 99 76 75 71 69 68 73 80
70 64 68 81 73 65 57 73 72 60 61 60 59 59 65 77 86 89 86 88 90 93 99 100 100 100 100 100 100 100 100 99 89 74 75 75 76 89
59 68 82 85 74 62 59 53 60 71 72 66 62 67 74 84 91 94 93 91 97 94 95 97 98 98 93 95 96 98 100 100 89 76 85 80 73 71
66 60 71 81 74 66 62 57 49 54 69 68 67 74 76 83 86 87 93 90 95 94 92 92 92 95 98 84 92 97 100 100 71 84 92 100 90 57
77 64 57 59 63 57 50 46 45 41 50 54 52 58 70 82 90 92 95 94 90 89 87 87 90 95 98 97 68 80 87 74 86 93 85 74 69 60
82 79 80 60 48 43 40 40 38 42 44 45 51 54 67 75 91 95 97 97 93 90 89 87 88 89 96 91 74 73 74 77 76 70 62 68 79 73
92 84 86 76 54 42 39 37 38 37 38 40 45 50 56 72 84 88 89 92 97 94 96 90 72 74 86 91 100 95 83 77 69 74 84 96 98 93
98 96 93 85 75 63 56 52 49 45 44 44 46 49 54 61 70 73 78 86 86 92 90 81 84 86 86 93 97 95 88 75 70 79 86 99 98 94
99 98 98 96 82 71 62 60 59 55 49 48 46 47 52 56 54 61 64 68 75 73 71 73 76 84 90 89 92 96 92 87 84 83 80 74 72 88

GFSNE_925_rhum_108.txt.gz
RH
91 92 89 81 78 88 89 96 82 98 99 93 90 91 90 87 85 82 84 86 97 100 98 100 96 99 99 98 98 92 91 88 84 84 89 88 87 84
83 91 86 93 92 95 92 100 99 97 96 92 98 95 95 93 92 91 90 90 100 100 100 99 97 96 97 95 91 88 86 83 88 89 84 83 81 81
100 100 100 100 100 99 100 100 100 100 99 100 99 100 96 95 96 94 95 94 93 98 98 94 93 92 90 88 86 88 86 86 83 80 78 71 81 83
88 87 84 84 80 86 100 99 95 99 100 100 100 100 98 97 98 93 92 92 90 90 93 93 90 86 87 88 89 87 83 80 67 63 49 38 63 86
82 88 90 94 99 99 100 98 100 99 100 100 100 100 100 98 98 96 90 91 89 84 86 88 89 88 84 81 76 71 63 53 42 35 26 34 80 90
80 87 94 95 93 100 100 98 100 100 100 100 100 100 99 100 99 98 93 89 80 78 73 68 65 62 61 60 64 60 46 34 28 36 40 62 66 83
76 83 95 99 99 98 100 100 100 100 100 100 100 100 99 99 99 97 92 83 77 68 61 58 52 43 36 35 42 47 41 33 32 48 82 92 83 80
76 79 79 84 95 99 100 100 100 100 100 100 99 96 96 96 99 94 86 76 72 67 62 55 40 37 40 41 42 52 54 52 48 58 83 98 86 81
91 93 92 89 98 100 100 99 100 100 99 98 96 90 84 81 82 87 82 74 57 55 56 41 37 42 49 52 63 62 60 57 56 55 75 93 95 83
96 99 100 97 97 98 98 96 94 92 92 90 86 82 80 78 79 79 78 68 61 56 52 42 56 60 59 62 69 75 64 62 63 76 55 93 92 89
99 100 100 96 94 96 92 87 86 84 82 80 79 78 73 72 72 70 65 62 63 60 56 52 67 71 68 67 69 76 70 61 86 98 98 97 99 97
97 98 100 97 97 97 89 72 72 78 74 69 68 58 53 54 55 54 49 51 58 66 63 62 76 74 73 76 73 75 72 66 91 98 93 95 97 96
95 93 95 97 99 100 86 61 54 52 60 56 56 56 57 50 46 47 47 48 47 62 70 72 84 82 74 88 86 83 77 75 72 76 76 75 74 92
92 91 90 92 99 95 76 50 46 44 50 44 41 48 55 57 57 56 58 62 68 75 72 82 77 78 84 84 76 84 86 79 70 71 74 77 73 71
84 85 94 95 92 76 64 49 68 55 49 52 49 49 52 62 66 64 68 68 74 81 87 87 84 85 90 89 92 89 86 78 83 74 81 76 62 63
86 91 97 85 92 83 66 72 65 63 49 47 50 54 59 66 75 78 84 87 85 83 84 83 88 98 100 100 99 100 100 96 92 95 87 66 64 63
95 78 76 87 85 74 66 57 65 71 66 62 63 60 59 66 76 86 93 90 87 91 93 96 98 99 98 96 96 92 90 98 100 72 73 75 48 52
96 69 69 80 82 75 67 56 55 54 62 77 71 62 61 70 82 93 97 96 89 93 96 95 95 97 98 77 78 94 98 100 88 77 84 92 75 45
92 76 60 60 70 71 70 65 58 53 48 51 66 64 64 72 82 92 87 96 93 89 89 89 92 95 100 98 67 88 84 76 79 81 73 74 71 51
100 88 76 68 62 55 52 51 50 47 47 46 54 55 55 62 80 91 90 92 94 93 89 87 89 90 97 89 69 60 64 62 73 79 72 61 69 66
100 100 97 95 88 76 62 50 43 40 38 40 43 43 47 56 66 76 82 91 96 97 97 88 66 67 80 89 98 94 70 71 75 75 71 88 93 89
99 99 99 99 98 96 81 69 59 52 47 43 40 40 42 47 57 65 79 86 93 100 89 72 64 77 96 99 96 91 90 79 72 69 77 84 93 96
100 99 99 99 98 99 97 83 73 67 62 57 51 45 44 48 48 58 70 72 78 78 87 94 85 88 89 88 91 90 89 90 86 80 66 65 71 80

GFSNE_925_rhum_111.txt.gz
RH
92 96 97 91 95 92 93 91 98 96 92 86 89 89 87 91 92 89 88 88 99 97 100 99 96 99 97 100 98 100 100 97 89 83 81 80 86 85
96 99 94 93 96 100 100 100 100 100 98 91 94 93 94 96 93 90 90 92 99 99 97 99 96 95 96 97 95 93 91 86 82 83 85 82 82 82
100 100 100 100 98 96 97 98 98 100 98 98 98 98 96 98 95 96 95 96 97 100 98 98 96 93 92 90 89 91 86 88 87 83 83 80 84 83
92 90 85 83 82 81 84 91 94 99 100 99 100 100 98 100 96 95 95 95 94 96 95 93 92 91 89 90 91 87 86 84 81 77 63 58 52 81
80 82 85 86 86 93 93 95 96 99 100 100 98 100 100 99 100 100 97 95 92 90 88 88 91 91 88 87 87 85 82 75 63 51 37 29 40 83
75 77 78 81 91 96 95 93 98 100 100 100 100 100 99 100 100 97 96 94 90 85 87 89 89 87 82 74 72 65 59 50 40 34 26 37 55 74
74 75 78 78 77 82 94 99 100 100 100 100 100 100 100 100 98 98 96 91 87 80 77 68 64 61 59 58 60 65 59 43 30 42 87 78 68 68
69 71 75 77 80 79 74 92 100 100 100 100 100 99 100 99 99 98 97 90 86 80 67 62 59 52 41 36 37 42 46 50 55 65 93 96 92 76
75 81 85 90 93 98 99 98 99 100 100 100 100 99 97 96 96 100 96 88 72 68 66 61 55 44 40 43 48 55 62 66 70 68 71 91 97 94
84 97 99 99 97 97 98 96 95 94 94 97 98 94 92 85 85 84 88 82 71 61 58 43 46 44 46 52 67 79 72 63 60 60 55 89 96 98
88 94 96 94 94 98 97 91 88 90 88 88 88 90 90 85 84 84 82 76 69 64 60 46 54 62 62 64 71 88 75 66 61 94 98 99 99 97
91 90 92 96 96 100 96 86 77 81 82 79 75 74 76 77 76 72 71 70 57 60 57 54 65 70 72 69 69 76 75 69 82 98 99 96 97 96
89 89 91 92 94 100 98 87 66 60 68 66 65 63 62 56 54 55 54 58 51 43 51 58 74 76 67 90 81 76 75 73 71 90 95 92 86 82
90 88 89 90 92 99 99 88 60 52 50 50 48 49 51 55 52 53 56 53 52 52 52 63 66 72 72 85 81 84 84 80 76 76 77 77 73 71
98 88 85 89 95 98 84 65 61 70 59 55 47 44 45 55 60 58 58 62 72 78 78 78 77 73 72 72 79 85 85 83 81 76 74 76 74 67
99 89 88 93 94 91 80 63 68 69 66 50 50 52 56 66 74 71 72 77 77 83 83 85 81 80 82 84 85 82 81 74 82 87 90 85 74 58
100 92 91 84 84 90 84 72 62 68 70 63 57 59 61 65 75 78 84 86 83 79 84 85 90 94 96 93 96 91 84 85 79 76 80 75 55 49
100 98 92 76 74 75 77 72 64 52 54 70 72 68 65 68 73 84 91 93 90 87 88 95 95 99 100 81 79 88 90 90 85 75 74 77 50 38
100 99 97 83 65 64 71 72 71 61 56 56 57 76 75 69 85 91 93 96 94 91 85 91 95 97 100 98 63 84 76 62 71 71 64 71 71 48
100 100 98 92 90 74 62 59 56 53 60 60 56 52 68 74 79 87 86 90 88 87 88 89 91 92 97 86 68 59 64 68 68 63 64 67 58 53
99 100 100 99 98 98 93 88 74 60 48 47 47 48 50 60 66 64 70 83 88 89 93 88 73 72 82 90 96 88 62 64 68 70 72 73 72 76
100 100 99 100 100 99 99 99 99 87 75 57 49 46 45 47 50 53 57 66 79 96 83 69 71 80 97 97 95 90 83 71 63 70 84 70 72 82
100 100 100 100 100 100 100 100 99 98 91 77 76 66 56 51 47 49 53 58 66 71 86 94 80 88 86 85 93 95 94 89 81 73 63 57 60 77

GFSNE_925_rhum_114.txt.gz
RH
90 94 98 91 94 97 96 97 99 99 96 88 88 88 90 85 84 88 90 89 93 96 98 98 95 97 94 93 92 94 98 100 92 87 82 77 81 87
96 99 99 100 100 100 100 100 100 100 99 94 90 94 92 91 95 94 92 95 99 95 98 100 96 96 97 99 99 98 98 96 90 96 84 81 84 86
99 98 95 95 90 86 85 86 89 99 100 99 98 96 96 96 96 98 98 99 98 99 97 97 93 95 94 93 92 90 90 94 92 86 91 89 86 84
94 89 80 76 76 77 80 88 99 99 100 100 100 98 99 99 100 100 100 100 97 96 95 98 96 92 90 90 92 92 88 86 84 93 84 68 71 84
79 77 75 72 72 77 82 89 92 89 90 100 99 100 100 100 100 100 100 100 98 98 94 91 89 92 92 92 90 89 88 84 81 76 61 44 41 80
72 71 70 73 74 79 80 79 88 99 100 100 100 100 100 100 100 99 100 100 95 91 92 90 94 95 90 89 89 86 82 74 64 50 34 25 32 84
69 71 72 75 78 79 84 88 93 96 98 100 100 100 100 100 98 98 99 97 96 91 90 88 86 88 83 78 78 70 65 57 43 40 35 43 63 73
66 70 74 77 78 81 85 96 100 100 99 100 100 100 99 99 100 100 99 97 95 91 84 80 72 66 61 54 47 51 54 51 53 48 91 95 97 76
67 71 76 81 84 86 90 94 95 97 98 100 100 100 100 100 99 100 99 97 90 83 78 70 65 61 53 43 38 40 50 60 82 89 94 98 98 85
70 75 79 83 89 93 93 93 91 91 89 90 96 99 98 100 99 100 100 98 89 76 72 62 63 58 49 43 45 65 89 88 84 81 88 97 97 97
80 84 87 88 88 86 90 92 88 87 89 87 88 90 94 95 93 93 96 92 79 68 66 48 51 52 51 54 65 88 91 71 63 59 88 76 96 99
86 88 88 85 88 94 93 90 86 78 79 80 76 76 85 85 89 90 85 83 72 74 66 57 54 54 67 69 77 87 89 71 66 92 92 97 99 98
84 85 88 92 94 96 99 94 83 66 61 65 64 65 66 61 66 70 68 73 70 46 42 58 58 68 68 85 78 78 84 75 69 90 98 99 99 95
91 88 86 86 90 96 100 96 78 61 57 54 49 46 49 51 47 47 48 52 56 53 44 45 54 64 69 86 86 81 78 76 74 75 91 94 89 80
100 99 90 84 89 98 98 84 66 69 68 56 50 47 44 52 60 57 55 57 62 62 68 64 67 64 67 60 70 84 87 83 79 76 74 73 72 72
100 100 93 88 92 93 91 76 64 61 66 68 57 52 54 55 65 68 66 67 71 81 87 88 85 81 74 70 67 68 74 70 80 80 78 77 70 70
99 100 97 90 90 89 90 87 75 62 62 62 65 59 58 60 68 78 80 80 84 80 80 80 80 82 81 78 79 72 71 76 74 79 81 78 72 72
100 99 98 94 92 81 76 78 74 67 59 53 65 72 69 66 67 76 85 88 90 86 80 85 92 99 98 72 73 78 76 71 72 79 82 72 50 46
100 99 99 99 98 90 73 69 70 65 69 69 61 58 66 76 78 78 84 90 95 95 92 87 95 96 100 94 60 89 77 62 72 84 80 74 60 39
100 100 99 99 99 99 97 96 77 65 61 58 61 59 61 62 81 80 82 86 89 93 90 88 89 90 94 83 66 62 68 70 69 64 60 61 58 59
99 100 99 99 99 99 99 100 100 98 87 71 56 52 53 58 57 70 73 84 90 90 90 83 62 67 74 87 95 82 59 56 57 55 57 67 71 63
100 100 100 100 100 100 99 100 100 100 100 96 80 68 52 50 55 60 63 66 70 89 78 65 65 76 98 96 94 86 75 62 62 62 66 64 62 64
100 100 100 100 100 100 99 99 99 99 98 99 99 93 77 79 67 57 56 54 54 58 76 87 80 87 90 95 96 94 89 82 76 72 66 65 66 68

GFSNE_925_rhum_117.txt.gz
RH
94 90 94 99 99 100 100 100 98 99 97 94 88 83 88 87 85 86 83 88 97 98 92 95 96 94 92 86 86 98 98 97 95 91 86 79 87 91
97 98 100 99 100 99 100 100 100 100 99 95 94 92 91 93 92 90 93 97 99 99 100 100 96 97 97 95 96 97 91 92 94 93 87 87 87 91
98 94 94 95 91 85 82 80 82 94 98 99 100 96 98 96 95 99 99 100 100 99 100 99 96 93 93 92 96 99 100 97 96 97 91 90 90 89
94 92 85 77 73 67 67 75 82 89 98 98 95 95 100 100 100 100 100 100 100 99 100 96 95 94 94 93 92 94 95 96 93 96 95 92 90 87
82 74 70 67 66 67 69 72 77 87 94 99 99 98 99 100 100 100 100 99 100 100 100 97 93 92 93 95 95 96 92 88 86 85 82 72 81 85
65 64 63 65 67 69 70 75 82 91 98 96 100 100 100 100 100 100 100 100 100 100 99 94 97 94 93 96 95 93 87 84 82 78 65 49 51 83
64 64 66 68 72 72 73 78 88 99 99 96 94 100 100 100 99 99 100 100 99 96 97 97 99 96 92 95 93 88 82 74 66 58 44 33 42 91
66 69 70 73 76 78 83 90 95 100 99 99 98 100 99 100 100 100 100 99 98 97 96 94 94 92 88 84 79 76 72 67 53 45 68 76 94 97
66 72 76 78 79 83 86 91 91 92 94 98 100 100 100 100 100 100 100 100 95 92 89 88 82 76 71 64 56 49 48 53 53 66 88 94 96 96
72 76 77 78 79 82 85 88 88 88 91 90 93 95 97 99 100 100 100 100 99 94 91 78 75 72 64 58 48 42 56 63 71 89 94 96 99 98
78 77 75 80 82 80 81 81 83 84 85 86 83 83 87 92 99 100 100 100 96 87 83 62 64 66 61 55 47 50 89 94 93 93 96 97 96 99
75 77 82 81 78 90 87 80 84 82 76 76 77 73 77 79 90 94 94 98 84 83 75 63 56 53 69 58 58 79 92 94 89 67 93 96 97 97
79 79 82 84 88 94 100 95 90 81 67 64 60 59 58 57 57 70 82 84 84 75 61 66 60 60 62 81 74 87 94 85 74 80 94 94 97 97
87 86 85 84 83 86 97 100 93 78 63 58 51 44 41 42 42 42 44 54 65 65 56 53 48 53 66 94 88 78 90 88 77 79 94 99 98 99
98 99 96 91 84 87 99 99 83 74 65 63 55 46 44 44 47 51 51 53 58 57 59 58 59 59 64 66 82 85 82 79 79 75 79 91 93 91
100 100 100 95 90 91 96 88 77 63 57 63 65 56 50 51 54 61 62 60 62 70 78 80 78 77 70 69 64 68 79 76 77 76 75 74 71 69
95 100 100 98 92 93 93 90 85 76 62 58 58 60 58 57 59 66 73 72 74 73 73 79 83 82 80 78 74 68 66 71 66 74 82 78 69 65
100 99 99 99 94 92 90 82 81 78 68 63 58 58 63 62 63 68 77 80 84 83 81 75 81 96 88 62 61 68 69 71 67 72 76 81 64 50
100 99 99 100 98 99 98 91 80 68 67 72 70 64 60 66 73 74 75 81 89 86 89 86 88 99 90 79 59 85 82 74 72 76 78 89 64 41
99 99 99 99 100 100 100 100 98 98 83 66 65 63 63 66 74 84 82 78 93 91 92 92 87 90 93 77 74 61 71 77 66 74 73 70 56 44
99 100 100 100 100 100 100 100 98 99 100 98 87 75 61 65 68 68 69 77 91 96 97 92 58 63 73 81 87 82 52 48 54 54 51 64 78 71
100 100 99 100 100 100 99 100 99 98 100 100 100 99 85 65 62 64 64 66 71 93 88 65 63 75 91 97 90 85 67 56 55 57 59 57 54 75
100 100 100 100 100 100 100 99 99 99 98 99 100 99 99 98 86 74 64 61 65 67 79 98 81 83 91 90 96 95 89 76 69 66 63 53 50 45